ECMWFFLT1_700_spd_000.txt.gz
Wind_Speed
25 26 28 32 35 37 39 41 41 41 41 42 43 45 47 49 52 55 55 55 53 52 51 47 46 46 44 41 40 39 38 38 37 34 32 32 31 29 27 25 24 25 26 27 28 30 29 28 27 25 24 24 25 26 28 29 29 29 30 30 30 29 27
24 25 26 28 32 35 38 40 41 42 42 42 43 44 46 46 48 51 54 56 56 55 54 52 50 50 48 44 41 41 41 41 40 38 36 34 32 30 28 25 23 23 24 25 27 29 30 29 28 27 25 24 24 25 27 28 29 29 29 29 28 27 27
24 25 25 26 28 32 35 37 40 42 42 43 43 44 46 46 46 48 51 54 56 57 58 57 55 53 51 48 45 44 45 44 43 41 39 36 33 32 30 27 24 23 24 26 27 28 30 29 28 27 26 25 23 24 26 27 29 29 28 29 28 27 26
25 25 25 25 26 28 32 34 37 40 42 43 44 45 46 46 46 47 49 51 53 56 58 59 59 58 55 52 48 47 48 48 46 43 41 39 36 34 32 29 26 24 24 25 25 25 27 29 28 26 26 26 24 25 27 28 28 28 29 29 28 27 26
26 26 25 25 25 27 29 31 34 37 40 42 44 45 46 47 47 47 48 50 51 54 57 58 59 60 59 57 53 49 49 50 48 46 44 42 40 36 33 30 27 24 23 23 24 24 25 26 27 27 27 27 26 26 28 29 28 27 28 28 28 27 26
28 27 27 26 25 26 27 29 31 34 37 39 42 43 44 46 47 48 48 49 50 52 54 56 58 59 60 60 58 54 51 51 51 49 47 45 42 38 35 32 29 25 22 22 24 26 25 25 27 28 29 28 28 27 27 29 28 27 27 27 27 27 26
29 28 28 27 26 26 26 27 28 30 33 35 37 39 41 43 45 47 48 48 49 50 53 55 56 58 59 59 60 58 55 52 51 51 48 45 43 40 37 35 30 25 22 21 24 26 27 27 27 28 30 29 28 28 28 28 29 28 27 26 27 27 27
30 30 30 29 28 27 27 27 28 29 30 31 33 35 37 39 42 45 48 48 48 48 51 53 55 56 57 57 58 60 59 54 52 52 49 46 45 43 39 36 32 27 23 22 23 26 27 28 28 28 30 30 29 29 29 29 29 29 28 27 27 27 27
30 32 32 31 30 29 29 28 28 29 31 32 33 35 36 38 39 41 45 48 48 47 48 51 54 55 56 56 57 60 63 59 54 51 48 47 47 43 38 36 33 29 25 22 23 25 27 27 28 29 30 31 30 30 30 29 29 28 28 28 28 27 28
31 32 34 34 33 32 31 30 29 30 31 32 33 34 36 37 38 39 43 46 47 47 47 49 52 54 56 57 56 58 62 62 59 53 48 49 48 43 40 39 36 31 27 24 25 25 26 28 29 29 31 32 30 30 30 29 27 27 27 28 28 28 28
33 33 35 35 35 35 33 32 31 31 32 33 33 33 33 35 36 38 41 44 46 47 47 47 49 53 55 57 57 58 59 61 62 57 51 51 51 47 45 42 39 35 30 27 26 26 27 28 29 30 32 32 31 31 30 27 25 25 26 28 28 28 27
36 36 36 36 37 36 35 34 33 33 33 34 35 34 33 33 34 35 38 41 44 47 47 47 48 51 54 56 58 58 58 60 63 59 53 52 53 52 49 46 43 39 34 29 28 28 28 28 30 31 31 32 31 30 29 26 25 23 24 26 27 27 26
37 38 38 38 38 37 36 36 36 35 36 37 37 37 37 36 36 35 36 38 41 45 47 48 48 50 53 55 57 59 59 59 62 62 56 53 55 55 52 51 49 42 36 32 30 29 29 29 30 31 31 32 31 29 27 26 26 25 24 24 25 25 26
38 39 39 39 39 38 37 37 37 37 37 38 39 38 39 40 39 39 38 37 39 42 45 48 49 50 52 55 56 58 59 60 61 63 60 55 55 56 54 54 52 45 38 35 33 31 30 30 31 31 31 31 29 27 27 27 26 26 25 24 23 24 25
39 39 40 40 40 39 38 38 38 37 37 38 39 40 40 41 41 41 41 39 39 40 43 46 49 51 52 54 56 57 59 61 61 62 63 58 54 56 57 56 53 46 40 37 35 32 31 31 32 32 31 31 29 27 27 27 26 25 24 24 22 22 24
41 40 40 41 41 40 39 38 38 37 37 37 39 40 40 41 42 42 41 41 39 40 42 45 48 51 52 53 55 56 57 60 61 61 64 63 58 55 56 59 56 47 42 40 37 34 33 33 33 32 32 32 31 29 28 28 26 24 23 23 23 22 23
43 41 40 41 41 40 40 39 38 38 37 37 38 39 38 39 41 41 41 40 39 39 41 44 47 50 51 52 54 56 57 59 61 60 62 65 63 58 56 59 57 47 43 43 39 36 36 35 34 34 34 33 32 32 31 28 28 27 25 24 24 23 23
44 41 40 40 40 40 40 39 38 38 38 38 38 38 38 38 40 41 41 40 38 38 40 44 46 49 50 51 52 55 57 58 59 59 59 61 64 63 58 56 54 48 45 44 41 39 38 37 36 36 35 34 33 34 34 30 30 32 28 25 24 25 23
44 40 39 39 39 39 39 39 39 39 39 39 39 39 38 37 39 41 41 39 38 37 39 42 46 48 49 50 51 53 56 58 58 58 58 59 61 63 59 54 53 51 49 47 44 41 39 38 39 39 38 36 34 33 33 31 32 34 30 26 25 26 23
42 39 37 37 37 38 39 39 40 40 41 42 41 40 39 38 39 41 41 41 39 37 36 39 44 48 50 50 50 52 56 58 58 57 58 58 60 61 58 53 52 52 51 50 47 43 40 40 41 41 38 36 34 32 32 32 32 32 29 28 28 27 25
39 38 36 35 36 38 39 40 41 42 43 44 43 42 41 40 40 41 42 42 42 40 39 38 40 46 51 51 51 52 55 58 59 58 57 58 59 59 57 54 53 52 51 51 48 43 41 41 43 42 38 36 36 34 34 33 32 32 31 32 29 27 26
37 36 35 35 37 38 39 41 42 43 43 43 43 43 44 43 42 42 43 43 44 44 44 43 41 43 49 53 52 52 55 57 59 58 57 58 58 58 58 56 56 54 52 51 47 43 42 43 44 43 40 38 37 37 36 36 36 36 34 32 30 27 27
35 34 35 36 37 38 40 41 42 42 41 41 42 43 45 46 46 46 46 46 46 47 47 47 45 44 47 52 53 53 54 57 58 58 58 58 58 59 61 58 56 54 51 50 48 44 43 44 45 44 41 40 39 38 38 39 39 36 32 31 30 29 28
33 34 36 37 38 39 40 41 41 42 42 42 43 45 47 49 49 49 50 50 50 51 51 51 50 47 48 51 53 53 54 55 56 57 58 58 58 60 61 59 56 54 52 51 50 46 44 46 47 46 44 41 39 38 37 38 38 33 30 31 32 31 29
34 35 37 38 39 40 41 42 42 43 44 44 45 47 49 50 51 51 50 49 49 50 51 52 54 52 50 51 52 53 53 53 54 57 58 58 59 59 59 57 55 55 54 52 50 47 46 48 49 48 44 41 40 38 36 36 35 32 30 32 33 34 31
35 36 37 38 39 40 41 43 44 44 45 45 46 48 48 49 50 50 48 45 45 46 48 50 53 55 54 52 52 53 53 52 53 55 57 58 58 57 57 56 53 54 55 53 50 49 49 50 51 49 46 43 42 40 38 36 34 32 32 32 31 31 28
34 36 37 38 38 39 41 43 45 46 46 46 47 47 46 46 46 46 45 44 45 47 48 48 51 55 55 52 51 52 51 50 52 53 55 57 56 55 57 56 54 56 57 54 52 51 51 52 52 50 46 43 41 38 36 34 31 29 29 29 28 29 28
34 35 35 35 36 37 39 41 43 45 45 45 44 43 43 42 42 43 43 43 44 46 48 48 50 54 54 52 50 50 49 48 50 52 53 54 53 52 54 54 55 60 59 55 54 53 53 53 52 50 46 42 39 36 35 33 30 28 28 29 30 32 31
34 34 33 34 36 38 40 40 40 40 40 38 37 37 39 39 39 39 39 38 39 42 44 44 48 52 52 49 48 48 47 47 48 51 52 50 47 48 50 52 56 61 59 56 54 52 52 53 51 49 46 42 39 36 34 32 30 30 31 33 34 34 33
34 34 34 36 39 42 42 39 36 35 34 33 33 35 37 37 36 35 33 32 33 35 35 39 45 47 46 46 47 47 46 46 47 50 50 47 45 47 49 51 54 58 59 58 54 50 51 50 48 46 43 39 37 35 33 32 32 33 33 34 35 33 31
35 37 39 41 44 46 44 38 32 31 32 31 33 35 36 37 35 32 29 28 28 29 31 38 45 43 41 43 45 46 46 46 46 48 48 46 47 51 51 48 49 53 56 56 52 49 48 46 43 42 39 36 34 34 33 34 33 33 33 33 32 29 26
37 40 43 45 48 48 43 37 31 28 30 32 34 35 36 37 36 32 29 29 30 30 34 41 46 42 39 42 45 45 46 46 47 48 49 47 48 51 48 44 46 51 51 50 48 47 46 43 40 39 36 34 34 33 34 34 33 32 31 29 26 24 23
39 43 46 48 50 47 42 38 32 26 28 30 32 32 32 34 35 33 31 32 34 35 37 43 47 44 40 42 46 47 47 48 50 52 52 50 49 48 45 45 48 49 47 46 46 45 44 42 39 37 34 33 33 34 33 32 30 30 28 25 24 23 23
39 43 46 50 50 45 41 36 26 19 20 22 25 28 28 29 31 33 34 35 37 37 38 43 47 46 43 44 47 47 47 49 53 54 53 51 50 50 49 49 50 46 42 44 45 43 44 44 41 38 36 35 34 33 31 30 28 27 26 25 24 24 24
40 42 46 50 49 43 39 31 17 9 9 8 8 15 22 26 29 33 34 35 36 36 37 41 45 46 46 47 47 47 49 52 53 51 50 50 50 52 52 52 49 43 41 43 44 44 46 44 40 36 35 36 35 32 30 28 27 26 26 25 24 24 24
38 41 44 49 48 43 38 29 16 12 11 8 5 4 16 24 27 29 30 31 35 36 37 41 44 46 47 46 46 48 52 55 53 50 49 48 48 50 52 51 48 44 44 45 45 45 45 42 39 37 34 33 33 30 27 27 26 26 26 25 24 23 22
36 39 43 47 45 41 38 30 18 12 9 5 5 3 14 21 21 23 26 29 33 36 38 41 44 45 46 45 45 48 53 55 54 49 46 46 48 48 47 49 48 46 47 48 46 43 42 40 40 40 36 31 28 26 25 24 24 24 24 24 23 21 20

ECMWFFLT1_700_spd_003.txt.gz
Wind_Speed
18 21 24 26 28 30 32 34 35 36 37 39 40 41 42 42 43 44 46 49 50 49 48 49 49 47 45 44 41 39 39 37 37 38 35 32 30 27 26 26 24 24 23 24 26 29 32 34 34 33 32 30 28 26 26 28 30 31 32 32 32 32 32
18 19 21 24 27 29 30 33 35 36 37 38 39 41 42 42 42 43 44 46 48 48 48 49 49 48 46 44 43 41 41 39 38 38 38 35 30 27 27 26 24 24 23 22 25 28 32 34 35 34 34 32 30 27 26 26 27 28 29 30 30 31 30
20 19 20 22 25 28 30 31 33 35 37 38 39 39 40 42 42 43 43 44 45 45 46 47 48 49 49 46 45 44 44 43 41 40 40 38 34 31 29 27 25 24 24 24 24 26 30 32 34 34 33 33 32 29 27 25 25 27 28 29 29 29 29
22 21 20 21 23 26 28 30 32 34 36 37 38 39 39 40 41 42 43 43 44 44 44 44 45 47 48 48 48 48 47 47 46 44 41 38 37 35 31 29 28 25 25 25 23 23 26 28 31 32 32 32 32 31 30 27 25 27 28 28 28 28 28
24 23 21 20 21 24 26 28 31 32 34 36 37 38 39 39 40 41 42 42 43 43 43 43 44 44 45 47 49 50 50 50 50 48 45 41 39 37 35 32 30 27 26 25 24 24 24 26 28 30 31 31 31 32 32 30 28 28 28 28 28 28 28
26 24 23 21 21 22 24 26 29 31 33 34 36 37 38 39 40 40 41 41 42 42 43 43 43 44 45 46 47 47 48 49 50 50 49 46 42 39 38 36 34 32 29 26 27 26 25 27 28 30 32 32 31 31 32 32 31 30 31 30 28 27 28
28 26 24 23 22 21 22 23 26 29 31 33 35 37 37 38 38 39 40 40 40 41 41 43 43 43 44 45 46 47 48 49 49 50 50 49 46 42 40 40 38 35 32 29 28 27 26 28 29 31 34 34 33 32 32 32 32 32 32 30 28 27 28
30 29 26 25 24 23 22 22 24 26 29 32 34 36 37 38 38 38 38 39 39 40 40 41 42 44 44 46 47 49 51 51 49 50 49 48 48 45 42 40 40 39 36 32 29 28 28 29 30 31 33 35 36 35 34 33 33 33 32 31 29 29 28
33 31 29 28 27 25 24 23 23 25 28 30 33 35 37 38 38 37 37 37 37 38 39 39 40 42 44 46 47 48 51 51 50 50 49 48 49 48 46 43 42 44 40 35 33 30 28 29 30 30 32 35 37 37 36 36 35 35 33 31 30 29 29
35 34 32 30 29 29 28 26 25 25 27 29 32 34 36 38 38 38 37 37 36 37 38 38 39 40 42 44 46 48 49 50 51 50 48 48 49 50 50 48 46 45 42 39 37 33 30 30 31 31 31 34 36 37 37 37 37 36 33 30 30 29 30
36 36 36 34 32 32 31 31 29 27 27 29 31 34 36 38 38 38 38 38 37 37 38 39 39 38 39 42 45 47 48 49 50 49 46 47 48 50 52 51 49 46 43 42 40 36 33 31 32 32 32 34 35 36 37 36 36 34 31 30 29 29 30
38 37 38 37 36 35 34 34 34 31 29 29 32 34 36 38 39 40 40 40 39 39 39 40 40 39 39 40 43 45 48 49 50 50 49 47 46 48 51 52 51 47 44 45 42 37 34 33 32 32 32 33 35 36 36 35 35 33 31 30 30 29 30
39 39 39 40 39 39 37 37 37 35 33 31 32 34 36 38 40 41 41 41 41 41 40 40 40 40 39 40 41 43 46 48 50 51 51 49 46 47 51 53 52 50 47 46 42 38 36 34 33 33 32 33 34 35 35 33 33 34 32 30 30 29 30
41 41 42 42 42 41 41 39 39 39 37 34 33 34 37 38 39 41 43 43 42 42 42 41 40 40 40 39 39 42 44 47 50 50 51 51 48 47 50 53 54 52 48 45 41 40 38 35 34 34 32 33 34 35 36 33 33 35 32 30 31 30 29
42 43 43 44 44 44 43 42 41 41 40 37 35 35 37 38 39 41 43 45 44 44 44 43 42 42 41 40 39 40 43 46 49 50 50 51 51 50 49 50 53 53 50 47 44 43 41 37 36 35 33 33 33 35 36 34 32 34 33 31 32 31 30
43 44 45 45 45 45 45 44 43 42 41 40 38 36 37 39 40 41 42 44 45 46 46 46 45 45 44 43 41 40 42 44 47 49 50 51 52 53 51 49 51 52 52 50 48 47 45 41 38 36 34 33 33 34 35 34 32 32 32 32 32 32 31
44 46 46 46 45 43 43 43 42 42 41 40 39 37 38 39 41 41 42 43 44 46 47 47 48 48 46 45 43 41 41 43 45 48 50 51 51 52 53 52 50 50 51 51 50 51 50 44 40 38 35 34 34 34 33 34 34 33 32 32 33 33 32
45 46 44 42 40 39 39 40 39 39 39 39 39 38 38 39 41 42 42 42 43 45 46 47 48 49 48 46 45 43 42 43 44 47 49 51 51 51 53 54 51 49 51 52 52 54 54 48 42 40 38 35 35 34 33 34 35 34 34 34 35 34 34
43 41 39 38 37 36 37 37 37 36 36 37 38 38 38 39 40 42 42 42 43 44 45 46 47 49 49 46 44 44 44 43 44 46 48 51 52 52 52 54 52 50 51 53 54 54 56 52 45 43 41 38 36 36 36 36 36 36 36 36 35 34 33
39 37 36 36 36 35 36 35 35 35 35 36 37 37 38 39 40 42 43 43 43 44 45 45 46 48 48 46 44 44 45 45 45 45 47 49 52 53 53 53 53 51 50 54 55 53 55 55 49 46 44 40 38 39 39 40 39 37 37 37 35 34 33
35 35 36 36 36 35 35 35 35 35 35 35 36 37 38 39 41 42 43 43 44 45 46 45 46 46 47 47 45 43 45 46 46 45 46 48 50 53 54 53 53 52 51 52 54 54 54 54 50 47 45 42 41 41 41 42 41 38 38 39 38 37 35
35 35 36 36 36 35 35 35 35 36 36 37 37 38 39 40 41 42 43 44 44 45 47 46 46 46 46 46 45 43 44 46 47 46 46 47 49 51 53 54 53 53 53 52 54 55 53 52 50 49 48 45 43 43 43 44 43 40 40 40 40 40 38
35 35 35 35 35 35 35 35 35 36 37 38 39 40 41 41 42 43 44 44 45 46 48 47 46 45 45 46 45 43 43 44 46 47 47 47 48 50 52 54 54 54 54 53 54 55 54 52 51 49 48 46 44 44 45 46 45 43 42 40 40 41 40
35 34 34 35 35 35 34 35 36 36 37 38 40 41 42 43 43 44 44 45 46 47 48 48 46 45 45 46 47 45 43 42 44 45 46 47 48 49 50 53 54 54 54 54 53 54 54 54 50 48 49 48 44 45 47 47 46 45 43 40 39 41 40
34 33 34 34 34 34 35 36 37 38 39 40 41 42 44 44 44 44 45 45 46 47 48 47 46 46 46 47 48 48 46 44 43 43 45 46 48 48 49 51 53 54 55 54 53 52 52 53 51 49 50 48 45 47 48 47 45 44 41 38 38 41 38
32 32 33 33 33 33 35 36 38 39 41 41 43 44 45 46 45 44 44 45 46 47 48 47 46 47 48 48 49 50 49 48 47 44 43 45 47 48 49 50 52 54 55 54 52 51 51 53 53 53 52 48 47 49 50 47 44 42 40 37 38 39 34
31 32 32 32 32 33 34 36 38 40 43 44 46 47 48 48 47 45 44 44 45 47 48 48 47 47 49 50 51 52 52 51 51 48 46 45 46 48 49 50 52 54 54 54 52 51 51 52 54 55 54 50 49 51 51 49 46 44 41 38 37 36 32
31 31 32 32 32 33 35 38 41 44 46 48 48 50 50 50 49 46 45 44 44 47 48 48 47 48 49 51 53 54 55 54 54 52 49 47 46 48 49 50 51 52 54 53 51 51 53 53 52 53 54 52 51 53 53 51 49 45 42 38 37 36 34
31 31 32 33 33 34 37 41 45 48 50 50 49 50 50 50 50 48 47 46 45 46 47 46 47 48 49 51 53 54 56 56 56 55 53 50 48 48 49 49 50 51 53 54 51 51 54 54 52 53 55 54 53 54 54 52 50 46 42 39 38 37 37
31 32 33 34 35 36 39 44 48 50 50 49 48 46 46 47 48 47 47 46 45 45 44 44 45 46 47 49 51 52 53 54 56 56 55 53 51 49 48 48 49 51 53 54 52 52 54 55 52 53 55 55 55 55 55 53 50 45 41 40 38 38 37
32 33 34 35 36 38 42 46 49 48 47 46 44 41 41 43 45 44 44 43 43 43 42 40 40 42 44 46 48 49 50 51 52 54 56 56 53 49 47 47 48 51 54 54 52 51 53 54 53 53 55 56 56 56 56 54 50 45 41 40 39 37 34
32 34 35 36 37 39 43 47 48 44 40 39 37 35 35 37 40 41 40 40 40 40 38 36 36 39 40 42 45 47 49 50 51 52 55 56 53 49 47 47 48 51 54 53 52 52 53 54 55 55 55 55 56 55 55 52 48 43 41 39 38 36 32
32 34 35 35 37 40 44 47 44 38 32 29 29 28 29 31 33 35 36 37 37 36 35 34 34 36 37 40 43 45 47 48 50 52 53 53 52 49 46 46 48 51 52 52 52 54 54 54 57 57 55 55 56 54 52 49 46 43 41 38 37 36 34
32 33 34 34 35 39 44 45 40 33 25 21 20 20 20 21 24 27 30 33 34 34 34 33 33 33 35 37 39 40 41 44 47 50 51 50 49 47 45 45 47 49 50 50 52 53 52 52 56 57 56 56 55 52 51 48 44 42 41 39 38 37 35
30 32 32 33 34 39 43 42 36 28 21 17 16 14 12 13 15 19 24 28 30 31 31 32 32 32 32 32 32 33 35 39 41 44 46 46 45 44 43 43 44 46 47 47 48 50 51 52 55 57 57 57 55 53 50 46 42 41 40 39 38 37 33
28 30 31 32 34 40 42 38 32 25 18 15 15 13 10 9 8 12 18 21 22 25 29 31 32 32 31 31 31 32 34 37 39 40 41 43 42 41 41 42 43 45 45 45 46 49 52 54 57 59 59 60 59 55 51 48 44 42 40 38 36 33 29
27 29 31 32 34 39 40 35 29 23 16 14 14 13 10 6 4 7 12 13 14 19 27 31 33 33 33 33 35 37 37 38 38 39 40 40 39 38 39 42 44 44 44 44 45 48 50 54 58 61 61 60 59 56 53 51 47 43 41 38 35 31 28

ECMWFFLT1_700_spd_006.txt.gz
Wind_Speed
14 16 18 18 19 22 25 26 26 27 28 30 33 35 37 39 40 41 42 43 44 45 46 48 48 47 47 46 45 44 43 43 43 41 39 39 37 32 32 32 31 29 27 28 30 28 26 27 31 36 38 36 37 37 37 39 40 42 43 42 40 38 38
15 16 17 18 18 19 22 24 26 26 27 29 31 33 35 37 39 40 41 43 43 44 44 45 46 46 47 47 47 47 46 44 44 41 39 40 39 36 35 35 33 30 29 29 30 30 28 24 22 29 37 38 38 38 37 37 38 39 40 39 38 38 38
17 17 17 19 19 19 20 22 24 26 27 29 30 32 34 36 38 39 40 42 43 44 44 44 44 45 45 46 45 46 46 45 45 44 43 43 42 40 38 39 37 33 31 30 29 30 31 29 23 24 32 37 37 38 38 36 36 37 37 37 36 36 37
19 18 18 18 19 20 21 21 23 25 27 29 30 31 33 35 37 38 40 41 42 43 44 44 44 44 45 44 44 44 43 44 45 47 47 46 46 45 41 41 41 36 32 31 30 28 29 30 28 26 30 34 35 37 38 37 36 36 36 36 35 34 35
21 20 19 18 18 20 21 22 22 24 26 27 29 31 32 34 36 37 39 40 41 42 43 44 44 44 45 45 44 44 43 44 45 46 47 46 47 49 46 43 42 39 34 31 29 28 27 28 28 28 27 29 32 36 38 38 38 37 37 36 35 34 34
22 22 22 20 19 19 20 21 23 24 25 27 29 30 32 33 35 36 37 39 40 41 41 43 44 44 45 45 45 45 43 43 43 44 45 44 45 50 48 43 41 40 38 34 31 30 28 27 27 27 25 22 24 31 37 40 38 38 38 38 36 35 34
23 23 23 23 22 20 19 20 22 24 26 27 28 30 32 33 34 35 37 38 39 40 40 41 42 43 44 44 44 45 44 43 41 41 42 41 43 47 48 44 42 42 41 38 36 33 30 29 28 28 27 22 19 23 31 38 39 39 39 40 39 36 36
24 25 25 25 25 24 22 21 22 24 26 28 29 30 31 33 34 35 36 38 38 39 40 40 40 41 42 44 44 44 44 43 42 42 40 39 40 44 47 47 45 45 43 41 41 37 32 31 30 29 29 26 22 23 26 31 36 40 41 41 41 39 39
27 27 27 27 28 27 27 25 24 24 25 27 29 30 31 33 34 35 36 37 38 39 40 40 40 40 41 43 44 44 44 44 44 43 41 40 41 44 46 46 45 46 46 46 44 40 37 34 32 30 30 29 28 27 26 27 32 37 42 44 42 40 40
28 29 30 29 29 29 29 29 29 27 27 27 29 31 32 33 35 36 36 37 38 39 41 41 40 40 40 41 42 44 44 44 45 44 44 45 46 47 46 44 43 44 44 46 47 44 41 39 36 33 31 32 32 29 24 25 31 34 38 44 44 40 38
29 30 31 31 31 31 31 31 32 32 31 30 30 31 32 34 35 36 37 38 38 39 40 41 42 41 41 41 41 42 43 43 45 46 46 47 46 45 44 43 45 45 43 43 46 46 43 40 38 35 32 31 33 34 27 22 26 32 35 41 44 40 37
30 31 32 33 33 33 33 33 33 34 34 34 33 33 33 33 35 37 38 39 39 40 40 41 42 42 42 42 41 41 42 43 44 46 47 47 47 47 47 48 50 48 45 43 44 44 42 40 40 37 34 32 33 37 35 27 25 28 34 42 43 40 36
31 32 33 34 35 35 35 35 35 36 36 36 36 36 35 34 35 37 39 39 40 41 41 41 42 43 44 44 44 43 42 42 43 44 45 47 48 49 50 50 48 46 47 45 43 44 42 42 43 41 37 34 34 36 37 36 32 28 32 39 41 40 37
32 33 34 34 35 36 37 38 39 38 38 39 39 39 38 37 36 36 38 40 41 41 42 43 43 44 45 45 46 45 43 43 43 43 44 45 47 50 51 50 47 45 47 47 46 46 45 44 46 45 41 37 36 37 37 38 37 31 30 33 35 39 39
32 33 34 35 35 37 38 40 41 42 41 40 39 39 39 39 38 37 37 39 41 42 43 44 45 46 46 47 47 47 46 44 44 43 44 44 45 48 51 52 48 45 46 48 47 47 46 46 47 46 44 41 39 39 38 37 36 34 34 34 34 36 37
33 33 34 35 36 37 39 41 42 43 42 40 39 38 38 39 39 38 37 38 40 42 43 45 46 47 48 48 48 48 48 47 45 44 44 44 44 46 49 52 51 47 46 47 46 46 47 48 47 46 45 44 42 40 39 38 36 35 36 39 39 35 33
33 34 35 36 37 38 40 41 41 41 40 39 38 37 37 37 38 38 37 37 39 42 44 45 47 48 49 50 50 50 50 49 47 45 44 43 43 44 46 49 51 49 47 47 45 45 49 49 47 46 45 45 46 44 41 39 36 35 35 37 38 34 32
35 35 36 38 39 40 40 40 38 37 37 37 37 37 37 36 36 36 36 36 37 41 44 45 47 49 50 51 51 51 52 51 50 48 46 45 44 44 45 47 50 49 47 49 48 46 48 49 48 47 46 46 47 46 44 40 36 35 36 38 37 33 32
36 37 38 39 39 40 39 38 35 35 35 36 36 36 36 36 35 34 34 35 36 39 43 45 47 49 51 52 51 52 53 53 53 51 50 48 46 45 45 45 48 49 48 50 53 51 50 50 50 49 47 47 48 47 44 41 37 35 37 39 38 34 34
37 39 40 40 40 40 38 36 34 34 36 36 36 36 36 36 35 34 33 34 35 37 40 44 47 49 50 51 52 52 52 53 54 54 53 52 50 48 47 45 47 50 50 50 54 56 53 50 49 49 48 49 50 49 46 42 39 37 38 40 39 35 35
39 40 40 40 39 39 37 35 35 36 37 37 36 35 35 36 36 35 35 34 34 36 39 42 45 48 49 51 51 51 52 53 54 55 55 54 53 51 49 48 47 49 51 51 52 54 53 51 49 49 50 52 52 51 48 45 41 39 40 41 39 37 37
41 40 40 39 38 37 36 35 35 36 37 36 36 35 35 36 37 37 37 37 37 37 39 41 43 45 47 49 50 50 50 51 53 54 55 55 55 54 52 50 48 49 51 53 52 53 54 53 50 50 52 53 53 51 50 47 43 41 42 43 42 39 40
40 40 39 38 38 36 35 35 36 36 36 35 35 35 35 37 38 38 39 40 40 41 41 42 43 43 45 46 49 50 50 51 52 54 55 55 55 55 53 51 49 49 50 52 53 54 56 56 52 50 51 53 55 55 52 49 46 43 44 46 44 42 42
39 39 39 38 37 36 35 35 36 35 35 35 35 36 37 38 38 40 41 42 43 43 44 43 43 43 44 45 47 50 51 51 52 53 54 54 54 54 54 52 50 49 50 51 52 54 56 57 56 53 52 55 58 57 53 51 49 46 47 47 44 43 43
38 38 38 37 36 35 35 35 35 35 35 35 36 37 37 38 39 41 43 45 46 47 46 45 44 43 44 45 47 50 52 52 52 53 54 54 53 53 53 53 50 48 49 50 51 53 54 56 58 56 54 55 57 56 54 54 53 51 50 48 45 44 44
38 38 38 36 35 34 34 34 35 35 36 37 38 39 39 40 42 44 46 48 50 51 51 49 46 44 44 45 47 49 52 54 54 54 55 54 52 52 52 52 50 48 48 49 50 51 52 55 57 56 54 55 56 56 56 58 58 55 52 48 45 45 44
39 38 37 35 34 34 34 34 35 36 37 39 40 41 42 44 45 47 49 51 52 53 53 52 50 47 45 45 47 49 52 55 55 55 55 54 52 51 52 52 50 48 47 47 48 50 50 53 57 57 55 55 57 57 56 56 58 57 54 50 47 45 45
38 37 35 34 33 33 33 34 35 36 38 40 42 43 45 47 49 51 53 53 53 53 53 53 51 49 47 45 47 49 52 55 57 56 56 54 52 52 52 52 49 47 46 46 47 48 49 51 55 58 57 55 56 56 53 52 54 54 53 52 49 48 46
36 34 33 32 32 32 32 33 35 36 38 40 42 45 47 50 53 55 55 54 53 53 52 51 50 49 47 46 46 49 53 56 57 57 57 55 53 52 52 52 49 46 44 43 45 47 48 49 53 57 58 57 56 56 54 51 50 51 53 54 52 50 49
33 32 31 30 30 30 32 33 34 36 38 40 42 45 49 52 55 55 55 52 51 50 49 47 47 46 46 45 47 50 53 56 58 58 57 55 54 53 53 52 50 46 42 42 45 47 47 48 51 55 58 59 57 57 57 54 50 50 54 55 53 52 51
31 30 29 29 29 30 31 33 34 36 38 40 43 47 50 53 55 54 52 47 45 47 47 45 44 44 43 43 46 49 52 55 57 57 56 55 55 55 55 54 53 49 44 42 45 47 47 47 50 54 57 59 58 58 60 57 51 50 53 54 54 54 52
29 28 28 28 29 30 31 33 35 37 39 42 45 48 50 53 53 49 45 42 42 45 45 43 43 42 40 41 45 48 50 53 55 56 56 56 57 57 56 56 55 52 48 45 45 46 46 46 49 53 55 57 58 58 58 55 51 51 53 54 55 55 53
28 27 28 28 29 30 31 34 36 38 41 44 47 48 49 49 47 41 38 38 41 43 43 41 40 39 38 40 43 46 48 51 53 54 56 57 58 58 58 57 57 53 50 49 48 45 45 46 49 52 54 55 56 56 56 54 52 52 54 55 56 54 50
27 27 28 28 29 29 31 33 36 39 43 45 46 46 44 41 38 35 34 37 40 41 40 37 34 34 36 38 41 43 45 48 51 53 56 57 58 59 58 57 57 55 52 52 50 45 44 47 49 50 52 53 53 53 53 53 51 52 55 56 55 52 49
26 27 28 28 28 28 30 33 36 40 44 45 44 41 37 33 32 32 32 35 38 38 33 29 27 28 31 34 36 39 42 44 47 49 53 55 56 57 57 56 56 57 56 55 52 46 43 45 48 50 51 52 52 51 53 53 50 49 55 56 53 52 52
26 27 27 27 27 28 30 33 36 40 42 42 39 35 30 28 28 30 31 32 34 31 23 19 19 22 26 30 32 35 36 37 39 42 46 50 51 52 53 53 55 56 55 54 51 47 43 44 47 49 51 53 53 51 52 53 48 46 51 55 54 53 54
26 26 27 26 26 27 30 33 37 40 39 37 34 30 26 24 25 27 28 28 28 25 19 16 16 19 23 26 28 30 31 31 34 37 41 44 46 48 50 51 50 49 48 48 48 47 44 45 47 49 50 53 55 53 52 51 48 46 50 54 54 54 54

ECMWFFLT1_700_spd_009.txt.gz
Wind_Speed
14 15 17 18 19 20 21 22 23 25 25 25 25 26 28 30 32 34 35 37 38 38 39 40 41 42 43 42 42 42 41 40 40 40 40 41 41 40 37 34 34 38 36 30 25 20 18 22 25 27 30 33 37 39 40 41 42 42 43 43 42 41 42
14 15 16 18 19 20 20 21 22 23 24 25 25 26 27 28 29 31 33 35 36 38 39 41 41 41 42 42 43 45 45 44 43 42 42 42 41 40 40 38 35 37 39 37 32 27 25 24 22 22 26 29 33 36 39 42 42 40 40 41 40 39 41
16 16 16 17 18 20 21 21 22 22 23 24 25 27 27 28 29 30 31 32 34 36 38 39 41 42 42 42 43 44 45 46 46 46 45 45 43 42 41 41 39 38 39 39 36 31 28 28 26 24 22 25 30 32 34 39 42 40 39 41 39 37 39
18 18 18 17 17 17 19 21 22 22 23 24 24 26 27 29 30 30 30 31 32 34 35 37 39 41 42 42 43 44 45 45 46 47 48 47 46 44 44 43 42 40 40 41 39 33 31 30 30 29 25 23 26 30 32 37 40 41 41 41 40 37 37
20 20 19 19 18 16 16 17 20 22 23 24 25 25 27 28 30 31 32 32 32 33 34 35 36 39 41 42 43 44 45 45 45 46 48 49 48 46 46 46 44 42 41 42 40 37 35 33 32 32 28 25 25 26 30 33 35 39 42 42 42 39 36
22 22 21 21 20 18 17 16 17 19 21 23 25 26 27 28 29 31 32 33 34 34 34 34 35 36 39 41 43 43 45 45 45 45 45 46 46 46 46 46 46 43 40 41 41 41 40 36 34 32 28 26 26 24 25 30 31 35 39 41 41 41 38
24 23 23 22 22 21 20 19 18 18 19 21 24 26 27 28 29 30 32 33 35 35 35 35 35 35 37 39 41 42 43 44 46 46 45 45 45 45 45 45 46 44 42 41 42 43 43 40 37 36 31 27 26 26 22 24 31 32 33 38 39 39 40
26 25 24 24 23 22 22 21 21 21 21 22 22 24 26 28 29 31 32 33 34 36 37 37 36 36 35 37 39 41 41 43 44 46 46 46 46 44 44 45 44 44 44 42 43 45 45 44 42 40 37 30 26 26 23 23 31 32 29 32 35 37 38
28 26 26 25 24 23 23 23 23 23 24 24 24 25 25 27 28 30 31 33 34 35 37 38 38 37 36 36 37 39 40 41 42 44 45 46 46 44 44 44 43 44 43 42 43 44 45 45 44 45 44 36 28 27 24 24 27 28 25 26 29 31 31
28 27 26 26 25 24 24 24 25 25 26 26 26 27 27 27 28 29 30 32 34 35 36 37 38 39 39 38 38 38 38 39 41 43 44 45 46 45 45 44 44 43 42 41 41 42 44 45 45 47 47 42 35 31 26 25 24 24 25 26 24 22 25
28 28 27 26 26 25 25 26 26 27 28 28 28 29 29 30 30 30 30 31 33 34 35 36 37 38 39 40 39 39 38 38 39 41 43 44 45 46 46 46 45 43 42 41 41 41 42 44 46 47 47 46 43 37 30 28 26 23 23 27 27 24 28
29 28 28 27 27 27 27 28 29 29 30 30 30 31 31 32 33 33 32 32 33 34 34 35 36 37 39 40 40 40 39 39 39 40 41 43 44 45 47 47 46 45 43 42 42 41 40 41 43 47 49 50 49 45 37 32 31 26 21 26 33 33 34
30 30 29 29 29 29 30 30 31 32 32 32 33 33 33 34 35 35 34 34 34 35 35 35 36 37 39 40 40 41 40 40 41 40 40 41 43 44 45 47 47 47 44 43 42 41 41 41 41 44 48 51 52 51 45 38 36 32 24 25 34 36 36
31 31 31 31 31 31 31 32 33 34 34 34 34 34 34 34 35 36 36 35 36 36 36 36 37 38 39 41 41 41 41 41 42 42 41 41 42 43 44 45 47 48 47 46 45 44 43 44 43 43 43 46 51 53 49 43 39 35 28 26 31 36 38
32 32 33 33 33 32 33 34 34 35 36 36 36 36 35 35 36 36 36 36 36 36 37 37 37 38 40 41 42 42 42 42 43 43 42 42 42 42 43 44 45 47 48 48 47 46 46 45 45 44 43 43 48 52 51 46 42 38 34 30 30 36 39
32 33 33 34 34 34 35 35 36 37 37 38 38 38 37 36 36 36 37 36 36 36 37 37 38 39 40 42 43 44 44 43 44 44 44 44 43 43 44 44 44 45 47 49 48 47 46 46 45 45 46 45 45 48 52 52 47 41 37 34 34 40 43
34 34 34 34 35 35 36 36 37 38 38 39 40 40 39 38 37 36 36 36 36 36 36 37 38 38 39 41 43 45 45 46 46 46 46 45 45 44 44 45 45 45 45 47 49 48 46 46 47 47 47 46 44 43 47 51 49 45 42 39 39 44 45
34 34 35 35 35 36 37 38 39 39 40 40 41 41 40 40 39 37 36 36 37 36 36 36 37 38 38 39 42 45 46 48 48 48 48 47 46 46 46 46 46 46 46 46 48 50 47 45 47 48 47 45 43 42 44 48 50 48 46 45 43 44 47
35 35 35 36 36 38 39 39 40 41 41 42 42 42 41 41 40 39 38 37 37 37 37 37 37 38 38 38 40 43 46 48 50 50 50 49 48 48 47 47 47 46 47 46 46 48 48 46 45 47 47 46 44 44 45 49 51 50 49 47 45 45 48
35 35 36 37 38 39 40 41 42 42 43 43 42 42 42 41 41 40 40 39 38 38 38 38 38 37 37 37 37 40 43 47 49 51 51 51 51 51 49 48 49 48 48 47 46 46 47 47 47 46 47 49 49 48 47 48 51 52 51 49 47 48 50
36 36 37 39 40 41 42 43 43 44 44 43 42 42 42 42 42 41 41 40 40 40 40 40 39 37 36 36 36 37 39 43 47 50 52 52 52 53 52 50 50 49 49 49 47 46 44 46 47 46 47 50 51 50 49 48 51 54 55 53 50 51 53
37 37 39 40 41 42 43 44 44 44 44 43 43 42 42 42 42 42 41 41 41 41 41 40 39 37 36 36 36 37 39 40 43 47 50 52 53 54 53 53 52 51 50 50 50 48 46 45 46 47 48 51 53 53 53 52 51 52 56 56 52 51 54
37 38 39 40 41 42 43 44 44 44 43 43 43 43 43 42 42 42 42 42 42 42 41 40 39 38 37 36 36 38 39 41 43 45 48 50 53 54 54 54 54 52 52 52 51 51 49 47 47 47 48 51 54 57 57 55 52 52 54 56 55 54 55
37 38 39 40 41 42 43 43 43 43 43 43 43 43 42 42 42 42 42 43 43 42 42 41 39 37 37 36 37 38 40 42 44 46 48 50 52 54 55 55 54 53 53 53 52 52 52 50 48 48 49 51 55 57 58 56 52 52 54 55 56 57 58
36 37 39 40 41 42 43 43 43 43 43 42 42 41 41 41 41 41 42 43 43 43 43 42 41 39 38 38 38 40 41 43 45 47 49 51 52 54 54 54 55 54 54 54 54 53 53 52 50 48 48 51 54 56 58 57 52 52 54 56 58 61 61
35 37 39 40 41 41 42 43 42 42 42 41 39 39 39 39 40 41 42 43 44 44 44 44 44 44 43 41 41 43 45 46 48 49 50 51 53 55 54 54 55 56 55 54 54 54 54 52 51 49 48 50 53 56 59 59 55 53 54 56 58 60 61
35 37 38 40 40 41 42 42 41 41 40 38 37 37 37 38 39 40 41 43 44 45 46 47 47 48 47 46 46 48 49 50 51 51 52 53 54 56 56 55 55 56 56 55 54 55 54 51 50 50 49 50 53 56 59 62 60 54 53 55 58 59 59
35 37 39 40 41 41 41 40 39 38 36 35 35 36 36 37 38 39 41 43 45 46 47 48 49 51 51 52 53 54 54 54 54 54 55 55 55 56 58 57 56 56 58 57 55 55 54 51 49 49 49 50 52 55 58 60 61 56 53 54 57 59 59
35 37 39 40 41 40 39 38 37 35 34 34 35 36 36 37 38 40 41 43 45 47 48 49 51 53 54 55 57 58 59 58 57 57 57 58 58 57 58 59 58 57 58 58 55 54 53 50 47 46 47 48 50 54 57 58 59 58 55 55 55 57 58
36 38 39 39 39 38 37 36 35 34 34 35 35 35 36 37 39 41 43 44 47 49 51 52 53 55 57 58 60 61 61 60 59 58 58 59 60 59 58 59 58 57 57 57 55 53 52 49 46 44 43 44 46 50 55 58 60 59 58 57 55 54 55
37 38 38 38 37 36 35 35 35 33 34 35 36 36 37 38 40 43 45 47 49 52 54 55 56 58 58 59 59 59 58 57 56 57 58 59 61 60 58 58 58 57 57 57 56 54 51 49 46 43 42 42 43 47 53 58 61 61 60 58 55 52 52
37 37 37 36 35 35 35 34 34 33 34 36 37 37 39 40 43 45 47 50 52 55 57 57 57 55 53 51 51 51 50 50 52 54 57 59 60 60 59 59 58 57 56 56 55 54 51 49 47 43 41 42 43 46 51 56 59 60 60 59 57 53 50
37 37 35 35 34 35 35 35 34 34 35 37 37 38 40 42 45 48 50 53 55 56 56 54 50 46 43 42 43 44 45 47 50 52 54 57 59 59 59 59 57 56 55 55 54 53 50 49 46 41 39 40 43 46 50 53 55 57 59 58 56 52 48
37 36 34 34 34 34 35 35 35 35 36 37 37 39 41 43 47 49 52 54 54 52 49 45 42 39 38 39 40 42 44 48 50 51 52 54 56 57 57 58 56 54 53 53 52 52 50 49 45 42 39 40 43 47 49 50 50 54 57 58 57 54 51
34 33 32 32 32 33 35 35 35 36 36 36 38 39 41 44 47 49 51 51 50 47 42 40 39 38 38 39 40 42 45 47 48 48 49 50 52 54 55 55 54 52 51 51 51 51 50 48 45 42 40 40 43 48 49 48 48 50 54 57 58 55 52
31 29 29 30 31 33 34 34 34 35 36 36 38 39 41 44 46 47 47 47 45 42 40 39 39 38 37 38 39 40 43 44 44 44 46 47 48 50 51 52 51 50 49 49 50 50 50 48 45 43 42 42 44 47 48 47 46 47 51 54 57 57 53
27 28 29 30 31 32 33 33 33 33 34 36 38 40 42 43 43 42 41 42 41 40 39 39 40 39 37 36 37 37 38 40 40 41 43 44 45 47 49 49 49 48 47 48 49 50 49 47 45 45 44 44 45 45 45 47 47 47 49 52 56 58 55

ECMWFFLT1_700_spd_015.txt.gz
Wind_Speed
8 8 8 8 9 9 10 10 10 10 10 9 9 9 9 9 8 9 11 13 16 17 19 20 22 24 26 28 29 29 30 32 34 35 35 36 36 35 33 33 35 36 34 33 33 34 34 33 31 31 30 28 27 26 25 25 26 27 27 28 29 30 32
10 10 10 10 10 10 11 11 12 12 12 12 11 10 10 10 10 10 10 11 13 14 16 18 20 21 23 25 27 28 29 30 31 32 34 36 37 37 37 36 36 37 36 35 34 35 36 36 35 34 32 30 30 28 27 27 27 27 26 27 28 29 31
12 13 13 12 12 13 13 13 13 12 12 13 13 13 12 12 11 11 11 11 12 13 14 16 18 19 21 22 24 26 27 29 30 31 32 33 35 37 39 39 39 39 38 37 35 34 36 38 37 36 34 32 32 32 31 29 28 27 27 28 28 28 29
15 16 16 15 15 15 14 14 13 12 12 12 13 14 14 15 14 13 13 12 12 13 13 15 16 17 19 21 22 23 24 26 28 30 31 32 33 35 37 39 40 41 41 39 37 35 36 37 37 37 36 34 34 34 33 32 30 29 29 30 31 30 30
16 17 18 18 17 16 16 15 14 14 13 13 13 13 14 15 16 16 16 15 14 13 13 14 15 16 17 19 20 21 22 24 26 27 29 30 32 33 34 37 38 39 40 40 39 38 37 37 38 38 37 36 37 36 34 34 33 32 32 32 33 33 32
16 17 18 18 17 17 17 16 16 15 15 15 14 14 15 15 16 17 17 17 17 16 15 15 15 16 17 17 18 19 20 21 23 25 26 28 30 30 31 33 35 36 38 38 38 40 40 39 39 41 39 38 38 37 36 37 36 35 34 34 33 33 33
17 17 18 18 17 17 17 17 17 17 17 17 16 16 16 17 17 16 17 17 17 18 18 18 17 17 18 18 18 18 19 20 21 23 24 26 28 29 30 31 32 34 35 34 34 37 39 40 41 42 40 39 39 38 38 39 39 37 36 34 34 33 32
17 17 17 18 18 18 18 18 18 17 18 18 18 18 18 18 19 18 18 17 18 18 18 19 19 19 20 20 20 19 19 19 20 22 22 24 26 28 29 30 31 32 33 32 32 32 33 36 38 39 39 39 39 39 39 40 40 39 37 36 35 34 33
18 18 17 18 18 17 17 18 18 18 18 18 18 19 19 20 20 20 20 20 20 20 20 21 21 21 21 22 23 23 21 21 21 21 21 23 24 26 27 29 31 31 31 32 33 33 32 32 33 34 37 38 39 41 41 41 41 39 37 38 38 36 36
19 18 18 18 18 17 17 17 18 18 18 18 19 19 20 21 21 22 22 22 22 22 22 23 23 23 24 23 24 24 24 24 24 23 22 23 24 25 26 27 29 30 30 31 33 34 35 34 33 34 36 37 40 42 43 43 42 39 38 39 38 37 37
20 19 18 18 18 18 17 18 18 19 19 19 20 20 21 21 22 23 23 24 24 24 24 24 25 25 25 25 24 25 26 27 26 24 24 24 24 25 26 26 28 28 29 30 32 34 36 37 37 37 36 36 39 41 42 43 44 41 38 39 39 38 37
20 19 18 18 18 18 19 19 20 20 21 21 21 22 22 23 24 24 24 24 25 25 25 25 26 27 27 26 25 25 25 27 28 27 26 26 26 26 27 27 28 28 28 30 32 33 35 37 39 39 39 39 40 40 40 43 44 40 37 37 39 40 39
20 19 19 19 19 19 19 20 21 21 21 21 22 23 23 24 25 25 25 25 25 25 25 26 26 27 28 28 27 26 26 27 28 29 28 28 27 27 28 28 29 29 29 30 31 33 34 36 38 40 41 41 40 39 40 43 45 41 36 37 39 41 42
20 20 20 20 20 20 20 20 21 21 21 21 22 23 23 24 25 26 26 26 26 26 26 27 28 28 29 30 30 29 28 28 28 28 29 29 29 29 29 29 30 30 31 32 32 33 34 35 37 39 41 41 41 41 40 41 43 42 41 41 41 42 43
21 20 21 21 21 21 21 21 22 22 22 22 23 24 24 25 26 27 27 27 28 28 28 29 29 30 30 30 31 31 30 30 30 29 29 29 30 31 31 31 31 31 32 34 34 33 34 35 37 38 40 42 42 42 41 40 40 42 42 42 42 43 44
21 21 22 22 22 22 23 23 23 23 23 24 25 25 26 27 27 28 28 28 29 29 30 30 30 31 31 31 31 32 32 32 32 31 30 30 30 31 32 33 32 31 32 35 36 36 35 35 36 37 38 41 42 42 43 42 41 41 42 41 42 43 43
23 23 23 23 23 23 24 24 24 25 25 26 26 27 27 28 28 29 29 30 30 31 31 31 32 32 32 32 32 33 33 34 34 33 33 32 31 31 33 33 33 32 33 35 36 37 37 37 36 36 36 37 40 41 42 43 43 43 43 41 42 43 43
24 24 24 24 24 24 25 26 26 27 27 27 28 28 28 29 29 30 31 31 31 32 33 33 34 34 33 33 33 33 34 35 35 36 35 34 33 33 33 34 33 33 34 35 36 36 38 39 38 38 36 35 36 38 41 42 42 44 44 43 42 42 42
25 25 25 25 25 25 26 27 28 29 29 29 29 29 29 30 31 32 32 33 33 34 35 36 36 36 36 35 35 34 35 36 37 37 37 36 36 35 35 35 34 34 35 35 35 35 36 39 40 40 39 37 35 34 37 39 40 41 43 43 43 43 43
26 26 25 25 26 26 27 29 29 30 30 30 30 31 32 32 33 34 34 34 35 36 37 38 39 39 39 38 37 36 36 37 38 39 39 38 38 37 37 36 35 35 35 36 36 35 35 36 39 40 41 40 38 35 35 36 37 38 39 40 42 44 44
27 26 26 26 26 27 28 29 30 30 30 31 32 32 33 34 35 36 36 36 37 38 39 40 40 41 41 40 39 38 38 38 39 40 40 40 39 39 39 38 37 36 35 36 36 36 35 35 36 39 40 41 41 39 37 35 35 36 37 38 39 41 44
27 26 26 27 27 28 29 29 30 30 30 32 33 34 35 36 37 38 38 38 39 39 40 41 41 42 42 41 40 39 39 39 39 40 41 41 40 40 40 39 38 37 36 37 36 36 36 35 35 36 37 39 41 42 41 38 35 34 37 38 39 40 41
27 27 27 27 28 29 29 29 30 30 32 33 35 36 37 38 39 40 40 40 40 40 41 41 41 41 42 42 41 41 40 40 39 40 40 41 41 40 40 40 39 38 38 37 37 37 36 35 34 34 34 35 39 42 43 41 39 37 37 37 39 40 41
27 27 27 28 29 29 29 30 30 32 33 35 36 37 39 40 40 40 41 41 41 41 42 42 42 41 41 42 42 41 41 40 40 40 40 41 41 41 41 41 40 40 39 38 38 38 37 36 35 34 33 33 34 38 42 43 42 41 40 40 40 41 41
28 28 28 28 29 29 30 31 32 33 34 36 37 38 39 40 40 40 41 41 41 42 42 42 42 41 41 42 42 42 41 41 41 41 41 41 41 41 42 42 42 41 40 39 39 39 39 39 37 36 35 34 33 34 37 41 43 43 43 44 42 42 41
28 27 27 28 29 30 31 32 33 33 34 36 38 39 39 39 39 40 40 41 42 43 43 42 41 41 41 41 41 42 42 42 41 41 41 42 42 42 43 43 44 43 42 41 41 41 41 41 40 39 37 36 35 34 34 37 41 43 45 46 46 45 43
27 26 26 28 29 30 31 32 33 33 35 37 38 39 39 39 39 40 41 42 43 43 43 42 41 41 41 41 41 42 43 43 43 42 43 43 43 43 44 44 45 45 44 43 43 43 43 43 43 43 42 40 38 37 36 36 38 41 44 47 49 48 46
25 25 26 27 28 30 31 31 32 33 35 37 38 39 39 40 40 41 42 43 44 43 42 41 41 41 41 41 42 42 43 44 44 45 44 45 45 45 45 46 47 47 47 46 45 46 46 46 46 46 46 44 42 40 39 38 38 39 43 47 49 50 49
24 24 25 26 27 29 29 30 32 33 35 37 38 39 40 41 42 42 43 43 43 43 42 41 41 41 41 42 43 44 45 46 46 47 47 47 47 48 48 48 49 49 49 49 48 48 48 48 49 49 48 48 46 43 41 40 40 40 41 45 48 50 49
23 24 24 25 27 27 29 30 32 34 36 37 38 39 40 41 42 42 43 43 42 41 41 40 41 41 42 43 44 45 47 47 48 49 49 49 50 50 51 51 52 53 53 52 52 51 51 51 51 51 50 49 50 48 45 42 42 42 42 43 46 48 49
22 23 24 24 26 27 29 31 33 34 36 36 37 39 40 41 41 41 42 41 41 41 40 40 40 41 42 43 45 46 48 49 50 51 51 52 52 52 53 54 54 56 56 56 56 56 56 55 54 53 52 51 51 51 48 46 46 45 43 43 44 45 47
20 21 22 23 25 26 29 31 33 34 35 35 37 38 39 40 40 40 39 39 39 40 40 40 41 42 43 44 45 47 49 50 52 52 53 53 53 54 55 56 56 58 59 59 59 59 59 58 57 56 55 53 52 51 51 50 49 48 46 46 45 43 44
18 18 20 22 25 27 29 31 32 32 33 34 35 36 37 38 38 38 38 38 38 39 40 41 42 43 44 45 47 49 51 52 53 54 54 55 55 56 57 57 58 59 60 60 60 60 60 60 60 59 58 56 54 52 52 53 52 51 50 49 47 43 40
16 17 20 23 25 27 29 29 29 30 31 32 33 34 35 36 37 37 37 37 38 39 40 41 43 44 45 46 48 50 52 54 55 56 57 58 58 57 55 55 54 54 55 57 57 57 58 58 59 59 59 58 56 54 54 55 55 54 53 51 48 45 41
16 18 21 24 26 27 27 27 28 29 30 31 32 33 34 35 36 36 36 37 38 39 40 42 42 43 45 46 48 50 53 55 57 58 59 58 54 50 45 44 44 44 45 47 48 48 49 50 51 54 54 54 54 54 56 56 56 56 54 52 50 47 43
17 20 22 24 24 24 24 25 26 28 29 30 31 32 33 34 35 36 36 37 38 39 40 42 42 43 44 46 48 50 53 54 54 55 55 52 46 40 36 35 34 35 36 38 39 39 40 41 44 46 46 46 47 49 53 56 56 56 54 52 51 48 45
16 19 20 21 21 22 23 23 25 26 28 30 30 31 32 34 35 36 37 37 38 39 40 41 42 42 44 46 48 49 49 50 49 49 50 48 43 37 34 33 31 31 32 35 36 36 37 39 41 44 44 42 41 44 49 53 54 53 52 51 51 48 45

ECMWFFLT1_700_spd_021.txt.gz
Wind_Speed
4 4 4 5 6 7 7 7 7 7 7 6 6 6 5 6 6 8 10 12 14 15 17 18 20 21 23 24 26 27 28 29 30 30 30 29 28 27 26 26 26 26 27 27 27 27 27 27 26 24 23 24 24 24 24 24 23 22 21 21 21 20 19
5 5 6 6 8 9 9 9 10 10 10 9 9 9 8 7 6 6 7 9 10 11 12 14 16 18 20 22 24 25 26 27 28 29 30 30 31 31 31 31 30 30 30 31 31 31 32 32 31 28 26 27 27 26 26 26 26 26 26 24 23 22 22
7 7 7 8 10 11 11 11 11 11 11 12 12 11 11 10 9 8 8 8 9 10 10 10 11 13 16 18 20 21 23 25 26 27 28 29 30 32 33 34 35 35 35 35 35 35 35 36 35 33 32 32 32 30 28 29 29 29 29 28 27 25 24
8 9 9 11 12 13 13 12 12 11 11 12 13 13 13 12 11 10 10 10 10 10 10 10 10 11 12 14 15 17 18 20 22 24 25 27 28 30 32 33 34 35 36 38 38 38 38 39 39 38 38 37 37 35 32 31 32 32 32 31 30 29 28
9 10 10 11 12 13 13 12 12 11 11 11 12 13 13 14 13 12 12 12 12 12 11 11 12 12 12 13 14 15 16 17 18 20 21 22 24 26 28 30 32 33 34 36 38 39 40 41 42 43 42 41 42 40 37 36 35 35 34 33 33 32 31
11 10 10 11 12 12 12 11 11 11 10 11 11 12 13 14 14 14 14 13 13 13 13 13 13 13 14 14 15 15 16 16 17 18 19 19 20 22 24 25 27 29 31 34 36 38 39 40 41 42 42 43 44 42 41 41 39 37 36 35 35 34 34
11 11 10 11 12 12 11 11 11 11 11 11 12 12 13 14 14 15 15 15 15 16 16 16 16 15 16 16 16 16 17 17 18 19 19 19 20 21 21 22 23 25 27 30 33 36 37 38 39 41 41 42 42 41 41 41 41 41 39 37 37 37 36
12 12 11 11 12 11 11 11 12 12 12 12 12 13 13 14 14 15 16 16 17 17 17 18 18 18 17 18 18 18 19 19 19 20 21 21 22 22 21 22 22 23 24 26 29 31 34 36 37 39 40 41 42 42 41 41 41 41 40 40 40 39 38
13 13 12 12 12 12 12 12 12 13 13 12 12 13 13 14 14 15 16 17 17 18 18 18 18 18 19 19 20 20 21 21 21 22 22 23 24 24 24 23 23 24 25 26 27 28 30 32 33 35 37 40 42 42 42 42 41 39 38 39 39 40 40
15 14 13 13 14 13 12 13 13 13 13 13 13 13 14 14 14 15 16 16 16 17 17 17 17 18 18 19 20 21 21 22 23 24 24 24 25 25 26 26 25 26 27 27 28 29 30 30 31 32 34 37 40 42 42 42 41 39 37 37 37 37 38
16 16 15 15 15 14 14 14 14 14 14 14 14 14 15 15 15 15 16 16 16 16 16 17 17 17 18 19 19 20 21 22 23 24 25 26 26 26 26 26 26 27 28 29 29 30 31 31 31 31 32 33 36 40 41 42 41 39 37 37 36 35 36
19 19 18 17 17 16 15 15 15 16 16 16 16 16 16 16 16 17 17 17 17 16 16 16 17 17 18 19 19 20 21 21 22 23 24 25 26 27 27 27 27 27 29 30 31 31 32 33 33 33 33 33 35 37 39 41 42 38 37 38 37 35 35
21 21 20 19 18 18 17 16 17 17 18 19 19 19 19 19 18 18 18 18 18 17 17 17 17 18 18 19 20 20 20 21 22 22 23 24 26 27 28 28 29 29 29 30 31 32 33 34 35 35 35 35 36 37 38 40 43 39 36 38 38 37 37
22 23 23 21 20 19 18 18 18 19 20 20 21 21 22 21 21 21 20 20 19 19 19 19 19 19 20 20 21 21 21 21 21 22 23 24 25 26 27 28 29 30 31 32 32 33 34 35 36 37 37 38 38 38 39 40 43 42 37 37 39 39 39
24 24 24 22 22 21 20 19 19 20 21 22 23 23 24 24 24 23 23 22 22 22 22 22 22 22 22 22 22 23 23 23 23 23 24 25 26 27 28 28 29 30 32 33 33 33 34 35 37 37 38 39 40 40 41 42 43 44 41 38 38 39 40
25 25 24 23 23 22 21 21 21 22 23 23 24 25 26 26 26 25 25 25 25 25 25 25 25 25 24 24 24 25 25 25 26 26 26 27 27 28 30 30 30 31 32 33 34 34 35 36 37 38 38 40 41 41 41 43 45 45 44 41 39 40 40
24 25 24 23 22 21 22 22 22 23 24 24 25 26 27 28 27 27 27 27 26 27 28 28 28 27 27 27 27 27 28 28 28 28 28 29 30 30 31 31 32 33 34 35 35 35 36 38 38 39 39 40 41 42 42 43 45 46 46 44 42 42 42
22 22 21 21 20 20 21 22 23 24 24 25 26 27 29 29 29 28 28 28 28 29 29 30 30 30 29 30 30 30 30 31 30 31 30 31 31 32 33 34 34 35 36 36 37 36 37 39 40 40 41 41 41 42 43 44 45 46 47 46 44 42 43
21 22 21 20 20 21 22 23 24 25 26 27 28 29 30 30 30 29 29 29 30 30 31 31 31 31 32 32 32 33 33 33 33 33 33 33 34 34 35 36 36 36 37 38 39 39 39 40 41 41 42 42 42 43 44 44 46 47 47 47 45 43 43
25 24 24 23 22 23 24 25 25 26 27 28 30 31 32 32 31 31 30 31 31 32 32 32 32 33 33 34 34 35 35 35 35 35 35 35 36 36 36 36 36 36 37 38 39 40 40 41 42 42 43 44 44 45 45 45 46 47 48 48 46 44 43
29 28 26 25 26 26 27 27 27 28 29 30 31 32 33 33 33 32 32 33 33 33 33 34 34 34 35 35 36 36 37 37 37 38 38 38 37 37 37 37 37 37 37 38 39 40 41 42 42 43 43 44 45 46 47 47 47 48 48 48 47 45 44
33 32 30 29 28 29 29 29 29 30 30 31 32 33 34 34 34 34 34 34 35 35 35 35 35 36 36 36 37 38 39 39 40 40 40 39 38 38 38 39 39 39 39 39 40 41 41 42 43 44 44 44 45 46 47 48 48 48 49 49 48 46 44
38 35 33 32 31 31 31 31 32 32 32 32 33 34 34 35 35 36 36 36 36 36 36 36 37 37 37 38 39 40 41 41 42 42 41 41 40 39 40 40 41 41 41 41 41 41 42 43 44 44 45 45 45 45 46 47 48 49 49 49 48 47 45
42 39 37 33 33 33 33 34 34 34 33 33 34 35 35 36 36 37 37 37 37 37 37 37 38 38 38 39 40 42 42 42 43 43 43 42 42 42 42 42 43 43 43 43 42 42 42 43 44 45 46 46 45 46 46 46 47 48 49 50 49 47 47
44 40 38 34 35 37 36 36 37 36 35 35 35 35 36 37 37 37 37 37 37 38 38 38 38 39 40 41 42 43 43 43 43 44 44 44 44 44 44 44 44 44 44 44 43 43 43 43 43 44 45 46 46 46 46 46 46 47 48 49 49 48 47
42 37 37 36 39 41 39 39 38 37 37 36 35 36 36 37 37 38 38 38 38 38 38 39 40 41 42 42 43 43 44 44 44 45 45 45 46 46 45 45 45 45 45 45 44 44 44 44 44 44 44 46 46 47 47 47 46 46 47 48 49 49 46
38 35 38 39 40 40 39 39 40 39 38 36 35 36 36 37 38 38 39 38 38 39 39 40 41 42 43 43 44 44 44 45 46 46 47 47 47 47 46 46 46 46 46 45 45 45 45 45 45 44 44 45 46 47 48 48 48 48 48 48 49 48 46
35 34 36 38 38 38 38 40 41 40 38 36 36 36 37 38 38 38 38 38 39 40 40 41 42 43 44 44 45 45 45 46 46 47 48 48 48 47 47 47 48 47 47 46 46 45 45 45 46 46 45 45 46 46 48 49 50 50 50 49 50 49 47
38 37 37 37 37 38 38 40 40 38 36 36 37 37 38 38 37 37 38 39 40 40 41 42 43 44 45 45 45 45 46 47 48 49 49 49 49 48 48 48 49 48 48 47 46 46 46 47 47 47 48 48 48 48 48 48 49 50 51 51 51 50 49
41 41 40 40 41 41 40 41 40 37 36 36 37 37 37 37 36 37 38 39 40 41 42 43 43 44 44 45 46 47 48 48 49 50 50 50 50 49 49 49 49 49 49 48 48 47 48 49 49 49 49 50 50 50 49 49 49 50 51 52 52 52 51
42 42 42 43 45 44 42 41 39 37 37 37 36 35 35 35 36 36 37 39 40 41 42 42 43 43 44 45 47 48 49 50 50 51 51 51 51 51 51 50 50 50 50 49 49 49 49 50 51 51 51 52 52 52 51 50 51 52 53 53 54 54 54
42 44 44 44 43 40 38 36 35 34 35 35 35 35 35 35 35 36 37 39 40 41 41 42 42 43 44 45 47 48 49 51 51 51 51 51 52 52 51 51 51 51 51 51 51 51 51 52 53 54 54 55 55 54 52 52 53 54 55 56 56 56 56
44 46 43 37 35 35 33 32 32 31 32 32 33 34 35 35 35 35 37 38 39 40 41 41 41 42 43 45 46 47 49 50 51 52 52 53 53 53 53 53 53 53 53 53 53 53 53 53 55 56 57 58 58 56 55 55 56 57 58 58 58 58 58
45 43 37 31 30 31 30 29 29 29 29 30 30 31 32 32 33 33 35 37 38 38 39 40 41 41 42 44 45 47 49 50 51 53 54 54 55 55 55 55 55 55 55 55 55 55 55 55 56 57 58 59 59 58 58 58 59 59 60 61 61 61 60
35 33 31 29 27 27 26 26 26 25 26 26 27 27 29 30 30 31 32 34 35 36 37 38 40 41 42 44 45 47 48 50 51 53 55 56 56 57 57 57 58 58 58 57 57 57 56 56 57 57 58 59 59 60 60 61 62 62 63 63 64 64 63
26 25 26 25 23 22 22 22 21 21 22 23 24 25 26 27 28 29 30 32 33 35 36 37 39 41 42 44 45 46 47 49 50 52 55 56 57 57 58 58 59 59 58 58 57 57 57 57 57 58 59 60 60 61 62 63 64 65 65 65 66 67 66
24 22 21 18 17 17 17 17 18 19 20 21 21 22 23 25 26 28 29 31 32 33 35 36 38 40 41 42 43 44 46 47 49 51 53 55 56 57 58 58 58 58 58 58 58 58 58 58 58 58 58 58 59 60 61 62 63 64 65 66 67 67 67

ECMWFFLT1_700_spd_024.txt.gz
Wind_Speed
2 2 2 2 3 5 7 8 8 7 6 5 5 6 6 6 6 7 8 9 10 12 13 14 15 16 17 17 18 19 20 21 22 23 24 25 25 25 25 24 23 23 22 21 22 23 23 21 20 21 22 21 21 21 21 21 21 21 20 20 20 20 20
4 3 3 4 5 7 8 10 10 10 9 7 7 7 7 7 7 7 7 7 8 9 10 11 12 13 14 15 16 17 18 19 20 21 22 24 25 26 27 28 27 27 26 25 24 25 25 25 23 24 25 25 23 23 23 24 24 23 22 22 22 22 22
5 4 4 5 7 9 10 11 11 11 11 10 9 9 9 9 9 9 8 8 8 8 9 10 10 11 12 13 14 14 15 16 17 18 19 20 22 23 25 26 28 29 29 29 29 29 29 30 29 28 28 29 28 27 26 27 27 25 24 24 23 23 23
6 6 6 7 9 10 11 12 12 11 11 11 10 10 10 10 10 10 10 9 9 9 9 9 10 11 11 12 12 13 13 14 15 15 16 17 18 19 21 23 24 26 28 30 31 32 33 34 34 34 33 33 33 31 30 31 31 29 28 27 26 26 26
7 7 7 9 10 10 11 12 12 11 10 10 10 10 11 11 11 11 11 10 10 10 10 10 11 11 11 12 12 12 13 13 14 14 14 15 16 17 18 19 21 23 25 26 28 30 32 34 35 35 35 35 35 33 33 34 34 33 33 31 30 30 30
9 8 8 9 10 11 11 12 12 11 10 10 10 11 11 11 12 12 11 11 11 11 11 11 12 12 12 13 13 13 13 14 14 14 14 15 15 16 17 18 19 20 21 22 23 24 26 28 31 32 33 34 34 33 33 34 34 35 35 35 36 36 35
10 10 9 10 11 11 11 11 11 11 11 11 11 11 12 12 12 13 13 12 12 12 12 13 13 14 14 15 15 15 15 15 16 15 16 16 16 16 17 18 19 19 20 21 22 23 23 23 25 28 29 31 32 33 33 34 34 33 33 34 37 38 39
12 11 11 10 11 12 12 11 11 11 11 11 12 12 12 12 13 13 14 14 14 14 14 15 15 15 16 17 17 17 17 17 17 17 17 17 17 18 18 19 19 20 21 22 22 23 24 24 24 25 27 29 30 31 32 33 33 33 31 31 33 34 36
13 13 12 11 11 13 13 12 12 12 11 11 11 12 12 13 13 14 14 15 15 16 16 16 16 17 17 17 18 18 18 18 18 18 18 18 18 18 19 20 21 21 22 22 23 24 25 25 25 26 26 28 29 30 31 31 31 31 31 32 32 31 32
14 13 13 13 14 15 15 14 14 13 12 12 12 12 13 13 14 14 14 15 15 16 16 17 17 17 17 17 18 18 18 18 18 18 18 18 18 18 19 19 20 21 22 23 24 24 25 26 27 28 28 28 30 31 32 32 30 29 29 31 31 30 30
15 15 15 16 16 17 16 16 16 15 14 14 13 13 14 15 15 15 14 15 15 16 17 17 17 17 17 18 18 18 18 19 19 19 19 19 19 19 19 19 20 20 21 22 23 24 25 26 26 28 29 30 31 32 33 34 32 30 29 30 30 30 30
17 17 17 18 19 19 18 18 18 18 17 17 16 15 16 16 16 16 16 15 15 16 17 17 17 17 18 18 18 18 18 18 19 19 19 19 19 19 19 20 21 21 21 22 22 23 24 25 26 27 28 29 31 32 33 36 35 32 31 32 31 30 30
19 19 20 21 22 21 20 20 21 20 20 20 19 18 18 18 18 17 17 17 17 17 17 18 18 18 18 18 19 19 19 19 19 18 19 19 19 19 19 20 21 22 22 22 23 24 24 25 26 27 28 29 30 31 33 35 36 32 31 34 34 32 32
19 21 23 23 24 24 23 23 23 23 22 22 21 21 21 21 21 20 19 18 18 19 19 19 19 19 20 20 20 20 20 20 20 20 19 20 20 20 20 20 21 22 23 23 24 25 26 26 27 27 28 29 30 32 33 35 36 33 29 31 34 34 34
18 21 24 25 26 26 25 25 25 25 25 24 23 23 23 23 23 22 21 20 20 20 21 21 21 22 22 22 21 21 21 21 21 21 21 21 21 22 22 22 23 24 24 25 25 26 27 28 29 29 29 30 31 32 34 36 37 35 30 29 32 34 35
17 20 23 25 27 27 27 27 27 27 26 26 25 24 25 25 25 24 23 22 22 22 22 22 23 23 23 23 23 23 23 23 23 23 23 23 23 23 23 23 24 25 26 27 27 28 29 30 30 31 31 32 32 33 34 36 38 38 34 30 30 32 33
19 20 22 24 26 28 29 29 29 29 28 28 27 27 27 27 27 26 25 24 24 24 24 24 24 24 24 25 25 24 24 24 24 25 25 25 25 25 25 25 26 27 28 29 29 30 31 32 32 33 33 33 34 34 35 37 38 39 38 34 32 33 34
21 22 21 23 26 28 30 30 30 31 30 30 29 29 29 28 28 27 26 27 27 26 26 26 26 26 26 26 26 26 26 26 26 26 27 27 27 28 28 28 28 29 30 30 30 30 31 32 32 33 33 34 35 36 36 37 39 40 41 39 35 34 35
24 23 23 24 26 29 31 32 32 33 32 32 32 31 31 30 29 29 28 29 29 29 29 28 28 28 28 28 28 28 28 28 28 28 28 29 29 30 30 30 30 31 32 32 31 30 30 31 32 33 34 34 35 36 37 38 39 41 42 41 39 36 36
28 27 27 27 28 30 33 34 35 35 34 34 34 33 32 32 31 30 29 30 30 31 31 31 30 30 30 30 30 30 30 30 30 30 31 31 32 32 32 32 32 32 33 34 33 33 32 32 33 34 35 36 37 38 38 39 39 41 42 43 41 39 37
32 32 31 31 31 33 36 37 37 38 37 36 35 34 34 34 32 31 31 31 31 32 33 32 32 32 33 33 33 32 32 31 31 32 32 33 34 34 34 34 34 34 35 35 35 35 35 34 35 35 35 36 38 39 40 41 41 42 43 43 43 41 39
38 37 35 34 34 36 40 40 38 38 39 37 36 36 35 35 34 33 33 32 33 34 34 34 34 34 35 35 35 35 34 34 34 34 34 34 35 35 36 36 36 36 36 37 37 37 37 37 37 38 37 38 39 40 41 42 43 43 44 44 44 43 41
42 42 39 37 37 38 41 42 42 40 39 38 38 38 37 36 36 35 35 35 35 35 35 35 35 35 36 36 36 37 36 36 37 37 37 37 36 37 37 38 38 38 38 38 38 38 39 39 39 40 40 40 40 41 42 43 44 44 45 46 45 44 44
41 42 41 40 41 41 41 42 42 40 40 42 43 41 39 37 37 37 38 37 37 36 36 37 37 36 36 37 38 38 39 39 39 39 39 39 39 39 39 40 40 40 40 39 39 40 40 41 41 41 42 42 42 43 43 44 44 44 45 46 46 46 45
39 40 40 40 42 43 44 42 39 37 40 44 47 45 41 38 38 39 39 39 38 38 38 39 38 37 37 38 39 40 40 41 41 41 41 41 42 42 42 42 42 41 41 41 41 42 42 42 42 43 43 43 43 43 44 45 45 46 46 47 47 46 46
39 38 38 38 40 43 44 45 43 40 40 43 47 49 45 39 38 39 39 39 40 40 40 40 39 39 39 40 41 41 42 42 43 43 43 44 44 44 44 44 44 44 44 44 44 44 44 44 44 43 44 44 44 44 44 45 46 47 47 48 48 47 46
40 39 38 38 39 40 42 43 44 42 41 41 46 49 47 42 39 39 39 41 42 40 39 39 39 40 41 41 42 43 43 44 45 45 45 45 45 45 45 45 46 46 45 45 45 45 45 45 45 45 45 45 45 45 45 45 46 47 47 49 49 49 46
40 40 40 39 38 39 39 40 40 39 39 42 46 48 47 43 39 39 41 42 41 39 38 39 40 41 42 43 44 45 45 46 46 46 46 46 47 47 47 47 47 47 47 47 47 46 46 46 47 47 46 46 46 46 46 46 47 47 48 49 50 50 48
41 40 40 39 38 38 38 38 37 37 38 41 44 45 43 41 39 40 41 41 40 39 38 39 40 42 43 44 45 46 47 47 47 47 47 47 47 48 48 48 49 49 49 48 48 47 47 48 48 48 48 48 48 48 48 47 48 48 49 50 51 51 51
43 41 40 39 37 37 37 37 38 37 36 38 40 41 41 40 40 40 40 39 38 38 39 40 41 42 44 45 46 47 47 48 48 48 48 48 48 48 49 49 49 50 49 49 48 48 48 49 49 49 50 49 50 50 50 49 49 50 51 52 53 53 53
43 42 40 37 35 33 34 38 40 39 37 37 39 41 40 39 39 39 38 38 38 39 40 41 42 43 45 46 47 48 48 48 48 48 48 48 48 49 49 49 49 49 49 49 49 49 49 50 51 51 51 51 51 51 51 50 51 52 53 54 55 56 55
41 41 39 35 32 31 34 40 43 42 41 39 39 40 39 37 37 37 37 38 39 40 41 42 43 44 45 46 47 48 48 48 48 48 48 48 48 48 49 49 49 50 50 51 51 52 52 52 52 52 53 53 53 52 52 51 52 53 55 56 57 57 57
39 39 37 34 31 29 32 37 40 40 40 40 38 37 36 34 34 35 36 37 39 39 40 41 42 43 43 44 45 45 46 47 48 48 48 49 49 49 49 50 50 51 52 53 53 54 54 55 55 55 55 55 55 54 53 53 54 54 55 55 56 57 58
36 36 36 35 33 30 30 34 37 35 33 32 32 32 31 31 31 32 33 35 36 37 38 39 39 40 41 42 42 43 44 46 47 48 49 49 49 50 50 51 52 53 54 55 55 56 57 57 58 58 57 57 57 56 55 56 56 56 55 55 55 56 57
35 35 35 33 33 32 32 35 35 30 25 23 24 25 26 26 27 29 30 32 33 34 34 36 37 38 39 40 41 42 44 45 46 48 49 50 50 51 52 53 54 55 56 57 57 58 58 59 59 59 59 58 57 56 56 57 57 57 57 56 55 55 55
32 32 30 28 31 34 35 34 30 24 21 21 21 22 23 24 25 26 27 28 29 30 32 34 35 37 39 40 40 41 42 44 45 47 48 50 51 52 53 54 55 55 56 57 58 58 58 58 58 58 57 57 57 56 57 57 58 58 58 57 56 55 54
26 25 25 27 31 33 31 28 24 20 18 18 18 19 21 21 22 23 23 25 27 29 31 33 35 36 37 38 39 40 41 42 44 46 47 49 50 52 53 53 54 54 55 56 56 57 57 57 57 56 56 56 56 56 56 57 57 57 57 57 57 56 55

ECMWFFLT1_700_spd_027.txt.gz
Wind_Speed
2 2 2 2 2 2 3 4 5 5 5 4 5 5 4 4 3 4 4 5 6 6 7 8 9 10 11 11 12 12 13 15 16 17 19 20 21 21 21 20 19 17 17 16 16 16 15 16 16 17 19 19 19 21 21 20 20 20 20 19 20 20 21
3 3 3 3 4 5 6 7 7 8 7 7 6 6 6 5 4 4 4 5 5 5 5 5 6 7 8 9 10 10 11 12 13 14 15 17 19 20 21 22 22 22 21 21 21 20 19 19 18 18 19 19 21 21 20 20 21 21 21 21 21 21 22
5 4 4 4 5 7 8 8 9 9 8 8 7 7 7 6 6 6 6 6 6 6 6 5 5 6 7 7 8 8 9 9 10 10 12 13 14 16 17 19 20 21 21 22 23 23 23 23 22 21 21 20 20 20 20 20 20 20 22 23 23 23 24
6 5 5 6 6 7 8 9 10 10 9 8 8 7 7 6 6 6 6 7 7 8 8 8 7 7 7 7 7 7 7 8 8 8 9 9 10 11 12 14 15 16 17 19 20 21 22 23 24 24 24 24 23 22 23 24 24 24 26 27 26 25 25
7 7 6 7 7 7 8 10 11 11 10 10 9 8 8 7 6 6 6 6 7 8 8 9 9 8 8 8 9 9 8 8 9 9 9 9 9 9 9 10 10 11 13 14 15 16 18 19 21 22 24 25 25 26 27 28 28 29 30 31 31 30 29
8 8 8 8 8 8 8 10 11 11 11 11 10 10 9 9 8 7 7 7 7 8 8 9 9 10 9 9 10 10 10 10 10 11 11 11 11 11 11 10 10 10 10 11 12 13 14 15 17 18 20 21 22 23 24 25 27 28 28 30 32 32 32
9 9 9 9 9 9 9 10 10 11 11 11 11 11 10 10 10 9 8 8 8 8 9 10 10 11 11 11 11 11 12 12 12 12 13 13 14 14 14 13 13 13 12 13 13 13 14 14 15 16 17 18 18 19 19 20 21 22 23 25 27 29 31
9 10 10 10 10 9 9 10 11 11 11 11 11 11 11 11 11 11 10 10 10 10 10 11 11 12 12 13 13 13 13 13 13 13 13 13 14 14 15 16 16 16 16 16 15 16 16 16 17 17 18 18 18 19 19 18 18 18 19 20 21 23 26
11 11 12 12 11 10 10 11 12 12 12 12 12 12 11 11 11 11 11 11 11 11 11 12 12 13 13 14 14 14 14 14 14 14 13 13 13 14 14 15 16 17 17 17 17 17 18 18 18 19 20 20 21 21 20 19 19 19 19 19 19 20 22
13 12 13 13 13 13 12 13 13 13 14 14 13 13 13 12 12 11 11 11 11 12 12 12 12 13 13 14 14 14 15 15 14 14 14 14 14 14 14 14 15 16 16 17 17 18 18 18 18 19 19 20 21 21 21 20 19 20 21 21 20 21 21
15 15 14 15 16 16 15 15 15 15 15 15 15 15 15 15 14 14 13 12 12 12 12 12 12 13 13 14 14 14 14 15 15 15 15 15 15 15 15 15 15 16 16 17 17 18 18 19 19 19 19 19 20 20 21 20 18 18 21 21 21 22 23
15 16 17 17 18 18 18 17 17 17 18 18 17 17 17 17 17 17 16 15 14 13 13 13 13 13 14 14 14 14 14 14 14 15 15 15 15 16 16 16 16 16 17 17 18 19 19 20 20 20 21 21 22 22 22 22 18 17 20 21 20 21 23
15 16 18 19 20 20 20 20 20 20 20 20 20 19 19 19 19 20 19 18 17 16 16 15 15 15 15 15 15 15 15 15 15 15 16 16 16 16 17 17 17 18 18 19 19 20 20 21 22 22 22 23 23 24 25 25 22 19 20 22 21 21 22
17 17 19 20 22 22 23 23 23 23 23 23 23 22 21 21 21 21 21 20 20 19 19 18 17 18 17 17 16 16 17 17 17 17 17 17 18 18 18 19 19 19 19 20 21 21 22 23 23 24 24 24 25 26 26 27 25 22 21 23 23 23 24
19 19 19 20 22 23 24 25 25 26 26 26 26 25 24 23 23 23 23 22 21 21 21 20 20 19 19 19 19 19 18 18 18 18 19 19 19 20 20 20 20 20 21 21 22 23 23 24 24 25 26 27 27 27 28 28 28 25 23 24 25 25 25
21 21 21 22 21 22 24 25 27 28 28 28 29 28 27 26 25 25 24 24 23 23 23 22 22 22 21 20 20 20 20 20 20 20 20 20 20 21 21 21 22 22 22 23 24 24 25 25 26 27 28 28 29 29 29 29 28 27 25 25 26 26 26
24 23 23 23 23 22 23 25 27 29 30 31 31 31 30 28 27 27 26 26 25 25 25 25 25 24 23 22 21 20 21 21 21 21 22 22 22 22 23 23 23 23 24 24 25 26 27 27 28 29 29 29 29 29 30 30 29 28 27 26 26 27 28
28 27 25 25 25 25 25 25 26 29 31 33 33 33 32 31 29 28 28 28 27 27 27 26 27 27 26 24 23 23 23 23 23 23 23 23 24 24 25 25 25 25 25 26 27 27 28 29 29 30 30 30 31 31 30 31 31 31 30 29 28 28 29
32 31 29 28 27 28 28 27 28 30 33 34 34 34 33 32 31 30 30 30 30 30 29 29 29 29 28 27 26 26 26 26 25 25 25 25 25 26 26 27 27 27 28 28 28 29 30 30 30 31 31 31 32 33 33 33 34 34 34 33 31 30 30
35 33 31 30 30 30 30 30 31 33 34 33 32 32 33 33 32 31 32 32 32 32 32 31 31 31 30 29 28 29 29 29 28 28 28 28 28 28 28 28 29 30 30 30 31 31 32 32 32 32 32 32 33 34 35 36 36 37 37 36 34 33 32
34 32 32 33 33 32 33 33 34 35 36 33 32 31 31 33 34 34 34 34 34 34 34 33 33 33 32 31 31 31 31 30 30 31 31 31 30 30 30 30 31 32 33 33 33 34 34 34 35 34 34 34 35 36 36 37 38 39 39 39 37 35 34
34 33 33 35 36 36 36 36 37 38 38 36 36 34 31 31 34 36 37 37 37 37 35 35 35 36 35 34 34 34 34 32 32 32 33 34 33 33 33 33 33 34 35 35 36 36 36 37 37 37 37 37 37 37 38 38 39 40 40 41 40 39 37
38 37 36 37 38 39 39 40 40 40 41 40 39 39 37 35 35 35 37 39 40 40 39 39 39 38 37 36 36 37 36 35 35 35 36 36 36 35 35 35 36 36 37 37 38 38 39 39 39 40 40 40 40 40 40 40 41 41 42 42 42 41 41
41 41 40 40 41 41 42 42 43 43 44 43 41 40 39 39 38 36 36 37 39 41 43 44 43 41 39 38 38 39 39 38 38 39 39 39 39 38 38 38 38 38 38 39 40 40 41 41 41 42 42 42 42 43 43 43 43 43 44 44 44 43 43
41 41 41 41 42 43 43 43 44 44 45 44 42 40 40 40 40 40 39 38 39 40 44 46 45 42 41 40 40 40 41 41 41 42 42 42 42 42 42 41 41 41 40 41 41 42 42 43 43 43 43 44 44 45 45 45 46 46 46 47 46 45 45
39 39 40 40 41 42 43 43 43 43 44 44 43 42 42 42 43 43 43 42 41 41 45 47 46 43 42 42 42 42 43 44 44 44 45 45 45 45 45 45 45 44 43 43 43 43 44 44 44 44 45 45 46 46 46 47 48 48 49 49 48 48 46
37 37 38 39 40 41 42 42 42 42 43 43 43 43 42 43 44 45 46 44 42 42 45 47 46 45 44 44 44 43 44 45 45 46 47 48 48 47 47 47 48 48 47 46 45 45 45 45 46 46 46 47 47 47 47 47 48 49 49 50 50 49 48
37 37 37 37 38 39 40 41 42 43 43 43 43 43 43 42 43 44 44 42 41 42 45 46 46 45 45 44 44 43 44 45 47 48 49 49 49 49 49 50 51 51 50 49 48 47 47 47 47 47 48 48 48 48 48 48 48 49 49 50 50 50 49
38 38 38 38 38 38 39 39 40 41 42 42 41 41 41 41 40 39 37 36 38 42 44 43 42 43 44 44 44 44 45 46 48 49 49 50 50 50 51 52 53 53 53 52 51 50 49 49 49 49 49 49 49 49 49 48 48 49 49 50 50 51 50
38 38 38 38 38 38 39 40 40 40 40 39 37 38 38 37 35 35 34 34 36 39 40 39 39 41 43 43 44 44 45 47 48 49 50 50 51 51 52 52 53 54 54 54 53 52 51 50 50 50 51 51 50 50 49 49 48 48 49 50 50 51 51
39 39 39 38 37 37 37 37 38 38 37 36 35 35 35 35 34 35 35 35 35 37 38 39 39 40 41 42 43 44 46 48 49 50 50 51 51 52 52 51 52 52 53 53 52 52 52 51 51 51 51 52 51 51 50 48 48 49 49 49 50 51 51
39 39 39 39 38 37 36 35 34 34 33 32 32 32 33 35 36 36 35 35 36 38 39 39 39 39 40 41 43 45 47 49 50 50 51 51 51 51 50 50 50 50 50 51 51 52 52 52 52 52 52 52 52 51 49 49 49 50 51 51 51 52 52
38 38 39 38 37 36 35 33 32 31 30 29 31 35 39 40 39 38 37 36 37 37 37 36 36 37 38 41 43 45 47 48 49 49 50 50 50 50 50 49 49 49 49 50 51 51 51 52 52 53 53 52 52 51 50 51 52 53 53 53 54 54 54
36 36 36 35 34 34 33 31 30 30 29 29 33 40 42 40 39 38 35 34 33 32 32 33 34 36 38 40 41 43 44 44 45 47 48 48 49 49 49 49 49 49 50 50 51 51 52 52 52 52 52 52 52 52 53 54 55 56 56 57 57 57 57
32 31 32 31 31 31 30 29 28 27 26 28 34 38 34 31 31 30 28 28 28 27 27 30 32 34 36 37 37 39 40 41 43 45 46 47 48 49 49 50 50 50 50 51 52 53 53 53 53 53 53 53 53 54 54 56 57 57 58 59 59 59 59
29 28 28 28 28 27 27 27 27 26 27 31 35 35 33 30 28 26 25 25 24 24 25 27 29 31 32 34 35 37 39 40 42 43 45 46 47 48 49 50 51 51 52 53 53 54 54 53 53 54 54 54 54 54 54 56 57 57 58 59 60 60 60
28 27 26 26 26 26 26 27 27 28 31 34 35 35 34 30 27 25 24 23 22 23 25 26 28 30 31 33 34 35 37 38 39 41 43 44 46 47 48 49 50 51 52 53 53 53 53 53 53 53 52 52 52 52 53 54 54 54 55 56 56 56 55

ECMWFFLT1_700_spd_030.txt.gz
Wind_Speed
2 2 3 3 3 2 2 2 3 3 4 4 3 3 3 3 3 3 2 3 3 3 4 4 5 6 7 8 9 11 12 13 14 15 16 17 17 18 18 18 18 15 14 16 15 12 12 12 14 19 18 17 20 22 23 24 25 24 24 24 24 23 23
3 3 3 3 4 4 4 4 4 4 4 4 4 4 4 4 4 4 3 3 2 2 2 2 3 3 4 5 6 7 8 9 10 11 12 14 15 16 17 18 19 18 16 18 19 18 17 14 14 16 16 16 18 21 23 24 25 26 25 25 26 25 25
3 3 3 3 3 3 3 3 4 4 4 4 3 3 4 4 5 5 5 4 4 3 3 2 2 2 3 3 4 4 5 5 6 7 8 9 10 11 13 14 16 17 17 19 20 19 19 19 18 19 19 19 19 18 21 21 21 22 22 22 24 25 26
4 4 4 3 4 4 4 4 5 5 5 5 4 3 2 2 3 4 5 5 5 4 4 3 3 3 3 3 3 3 3 4 4 4 5 6 6 7 9 10 10 12 13 15 16 17 18 19 20 21 22 22 22 21 21 20 19 20 20 19 20 22 23
5 5 4 4 4 4 4 4 6 7 7 7 6 5 4 3 1 1 2 3 3 4 4 4 4 4 4 4 4 4 4 4 4 4 4 5 5 5 6 7 7 8 8 9 10 11 13 14 16 18 20 22 23 24 24 23 22 23 23 22 21 22 24
6 6 6 5 5 5 5 4 5 7 7 8 7 7 6 5 4 3 2 1 2 3 3 4 4 4 4 5 5 5 5 5 6 6 6 6 6 7 7 7 8 8 8 8 9 9 9 10 11 12 13 15 17 18 20 22 24 25 26 26 24 23 25
8 8 8 7 7 6 6 5 5 6 7 8 8 8 8 7 6 6 5 4 3 2 3 3 4 4 5 5 5 6 6 6 7 7 8 8 8 8 9 9 10 10 10 10 11 11 11 11 11 11 11 12 12 12 13 16 18 20 23 25 24 24 25
11 10 10 9 9 8 7 7 7 6 6 7 8 9 9 9 8 7 7 6 6 5 4 4 5 5 5 6 6 6 6 7 7 7 8 8 8 9 9 10 10 11 12 12 12 13 13 13 14 14 14 14 14 14 13 14 14 15 17 18 20 22 23
12 12 12 11 11 10 9 9 9 9 8 7 8 9 9 9 9 9 9 8 8 7 7 7 7 7 7 7 7 7 7 7 7 7 7 8 8 8 9 9 10 10 11 11 12 12 13 14 14 14 15 15 15 15 15 15 16 17 17 16 18 19 21
13 13 14 13 13 13 12 12 12 11 10 9 9 9 10 10 10 10 10 10 10 10 10 9 9 9 9 8 8 8 8 8 8 8 8 8 9 9 9 9 9 9 10 10 11 11 12 12 13 13 14 14 15 15 15 15 16 17 18 18 19 20 21
13 14 15 15 16 16 15 15 15 15 14 13 12 11 11 12 11 11 11 10 11 11 11 11 11 11 11 10 10 9 9 9 9 9 10 10 10 10 10 11 11 11 11 11 11 12 12 12 12 13 13 14 14 15 15 15 15 15 17 18 19 20 21
15 14 15 16 18 18 18 18 18 18 18 17 16 15 14 14 14 13 13 12 12 12 12 12 13 13 12 12 12 11 11 11 11 11 11 12 12 12 13 13 13 14 14 14 14 13 13 13 13 14 14 15 15 16 16 17 16 16 16 18 18 19 20
17 16 16 17 18 19 20 21 21 21 21 21 21 19 18 18 17 16 16 15 14 13 13 13 13 13 13 12 12 12 12 13 13 13 13 13 14 14 15 15 15 16 16 17 17 16 16 16 16 16 16 16 17 17 17 18 18 18 18 19 20 20 20
20 19 19 19 18 19 20 22 23 23 24 24 24 23 22 21 20 20 19 18 17 16 15 15 15 15 15 13 12 12 13 13 14 15 15 15 15 15 16 17 17 18 18 19 19 19 19 19 19 19 19 19 19 19 19 19 19 19 19 20 21 21 21
24 23 22 22 21 21 21 22 23 25 26 27 27 27 27 26 24 23 22 21 20 19 17 17 17 17 17 15 14 13 13 14 14 15 16 16 16 16 17 18 19 19 20 20 21 21 22 22 22 22 22 22 22 22 22 21 21 21 20 20 21 21 21
26 26 25 25 25 24 23 23 24 25 26 28 29 30 30 29 27 26 25 24 23 22 20 20 19 19 19 18 17 16 15 15 16 16 17 17 18 18 18 18 19 20 21 22 22 23 23 24 24 24 25 25 25 25 25 25 24 24 23 22 21 22 22
28 28 28 27 27 26 26 25 25 25 26 28 29 30 31 31 30 29 28 27 26 24 23 22 22 21 20 19 19 18 18 18 18 18 18 19 19 20 20 20 21 21 22 23 23 24 25 25 26 26 27 28 28 29 28 28 27 27 27 26 25 24 25
29 29 29 30 30 29 29 28 28 27 27 28 28 29 31 32 32 31 30 28 27 26 26 25 24 23 22 21 21 22 21 21 21 21 21 21 21 21 22 22 23 23 24 24 24 25 26 26 27 28 28 29 30 31 31 31 30 30 30 30 29 28 28
30 31 31 32 33 32 31 31 31 31 30 29 28 29 31 32 31 31 31 30 29 28 27 27 26 26 25 24 24 25 25 25 24 24 24 24 23 24 24 24 24 24 25 26 26 27 27 28 28 29 29 30 32 33 33 33 33 32 32 32 32 32 31
29 30 31 34 35 34 34 34 33 33 33 32 31 33 33 30 29 30 31 32 30 30 29 29 29 29 28 28 28 28 29 29 28 28 28 27 26 26 26 26 26 26 26 27 27 28 29 29 30 30 31 32 33 34 34 35 35 34 34 34 34 34 34
28 29 30 32 34 35 35 35 35 37 37 35 36 38 36 31 29 30 31 31 30 29 29 29 29 29 29 29 30 31 32 33 33 33 33 32 31 30 30 29 28 28 28 29 29 30 30 31 31 32 32 34 35 35 36 36 36 36 36 36 35 35 36
32 32 32 34 34 34 33 33 36 39 40 39 40 41 40 35 33 33 33 33 32 30 29 28 28 28 28 28 30 32 33 35 36 38 38 37 36 35 35 34 31 30 30 31 32 32 33 33 33 34 34 35 36 37 38 38 38 38 38 38 38 37 37
34 35 36 37 37 36 33 32 34 37 40 42 43 44 44 40 37 37 38 37 37 35 33 31 29 28 28 30 31 33 34 36 38 39 40 40 39 38 38 37 35 33 32 33 33 35 35 36 37 37 37 37 38 39 39 39 39 40 40 40 40 39 39
37 38 38 38 38 37 35 34 34 36 39 43 45 46 47 44 41 40 38 36 37 37 35 32 31 31 32 33 34 35 36 38 40 41 43 42 41 40 40 39 37 36 36 35 36 36 37 37 38 39 40 40 40 41 41 42 41 41 42 42 42 42 42
38 38 39 39 39 38 37 35 35 36 38 41 44 45 44 43 44 44 39 35 35 34 32 32 32 33 35 37 37 37 39 41 42 43 45 45 43 42 42 41 39 39 39 39 38 38 38 39 39 40 41 42 42 42 43 43 44 44 44 44 44 44 44
37 37 36 37 37 38 38 37 37 37 38 39 41 41 39 39 41 42 40 38 37 35 33 33 34 36 37 39 40 41 42 44 44 44 46 46 45 45 44 42 40 40 41 42 41 41 40 41 41 42 43 43 43 43 44 44 45 45 45 46 47 47 46
35 34 34 34 34 35 36 36 37 38 39 40 40 39 38 38 38 39 39 39 38 37 36 35 36 38 40 42 43 43 43 43 42 43 44 45 46 47 46 43 42 42 43 44 44 44 43 43 43 44 44 44 45 45 45 45 46 46 46 47 48 48 48
34 34 34 34 34 34 34 35 35 37 38 39 40 40 40 40 40 40 40 40 40 39 39 39 39 39 41 42 42 41 40 41 41 41 42 44 46 47 47 46 45 45 46 46 46 45 45 45 45 45 45 45 45 45 46 47 47 47 48 48 49 49 49
34 34 34 34 34 34 35 35 36 37 37 38 38 39 40 40 41 41 42 42 42 41 41 40 39 38 38 37 37 37 38 40 40 39 40 41 44 46 47 47 47 47 48 48 48 47 47 47 47 47 46 46 46 46 47 47 48 48 49 50 50 51 51
33 33 33 33 34 34 35 35 36 37 37 37 37 38 38 39 39 40 40 40 40 40 40 39 38 37 36 35 35 36 37 38 38 38 38 40 42 43 45 46 47 48 50 50 49 49 48 48 48 48 48 48 48 48 48 48 48 49 49 50 51 51 51
34 33 33 33 34 35 36 37 38 38 38 37 37 37 37 37 37 37 37 37 37 38 38 38 38 38 37 37 37 37 36 37 38 39 39 40 41 43 45 47 48 49 50 50 49 49 50 50 50 51 51 50 50 50 49 49 49 50 51 51 51 51 51
35 35 35 35 35 36 37 38 38 38 38 38 37 37 36 35 35 35 35 36 36 37 37 37 37 37 38 39 38 37 37 38 39 40 41 42 43 44 46 47 48 48 49 49 49 50 51 51 52 52 52 53 52 51 50 50 50 51 51 51 51 51 51
36 37 37 37 37 37 36 37 37 38 38 38 37 36 36 34 34 34 34 35 35 35 36 37 38 38 38 38 38 38 39 40 41 42 43 43 43 44 45 46 47 48 49 50 50 51 51 52 52 53 53 53 53 52 51 52 52 52 52 51 51 51 52
38 38 38 38 38 36 34 34 35 36 36 36 36 35 34 33 33 33 33 33 34 35 37 39 40 38 38 38 40 41 41 41 42 42 42 41 42 42 44 45 47 49 49 50 50 51 52 52 53 53 54 54 53 53 53 53 53 54 53 53 52 52 52
39 39 38 38 36 34 33 33 34 34 34 34 33 32 32 32 31 30 30 32 35 38 39 40 39 37 36 37 39 39 39 39 39 39 39 40 41 42 44 45 47 48 48 49 49 50 51 52 53 53 54 54 54 54 54 55 55 55 54 54 54 53 53
39 38 37 36 35 34 33 33 34 33 33 31 31 31 31 30 29 29 31 34 37 37 35 33 32 32 33 33 33 34 34 35 36 36 38 39 40 41 43 44 45 46 47 48 49 50 50 51 52 53 53 53 53 54 54 55 55 55 54 54 53 53 52
38 37 36 35 35 35 34 33 34 33 32 31 30 30 29 28 28 30 33 34 32 29 26 25 26 29 31 31 31 32 32 33 34 35 36 37 38 40 41 43 44 45 46 47 48 49 50 50 51 51 52 52 52 53 53 53 53 52 52 52 51 50 48

ECMWFFLT1_700_spd_033.txt.gz
Wind_Speed
2 2 2 3 3 3 4 4 4 4 4 4 4 4 4 4 4 4 4 4 4 5 5 5 5 5 6 6 7 8 9 10 10 11 11 11 11 11 10 11 13 13 12 13 13 12 11 9 6 7 14 20 20 18 19 21 22 24 24 25 25 25 25
2 1 2 3 3 4 4 3 3 3 3 4 4 5 5 5 5 5 5 4 4 3 3 3 3 3 3 4 5 6 6 7 9 10 10 11 12 12 12 13 14 14 14 14 14 14 13 12 10 7 9 15 19 20 21 22 22 22 23 23 24 24 24
3 2 1 2 2 2 2 2 1 1 1 1 2 3 4 5 5 6 6 5 5 4 4 3 3 3 3 2 3 3 4 4 5 7 7 8 10 11 12 14 15 15 15 15 16 15 14 13 14 13 12 13 15 17 19 21 24 25 23 23 24 24 24
5 4 3 2 2 2 2 1 1 2 2 2 1 1 1 2 4 4 5 5 6 6 5 5 4 4 4 3 3 3 3 3 3 4 5 5 6 7 8 9 11 11 12 14 15 14 14 14 15 16 16 16 16 17 16 16 19 23 24 24 24 23 24
6 6 5 3 3 3 3 2 2 3 3 3 3 2 2 1 1 2 3 4 4 5 5 5 5 5 5 5 4 4 4 4 4 4 5 5 5 5 6 6 7 7 8 9 10 10 11 12 13 15 17 18 19 20 19 17 16 17 19 19 19 19 21
8 7 6 5 4 4 4 3 3 3 3 4 5 4 4 3 2 1 1 2 2 3 3 4 4 5 5 5 5 5 5 5 6 6 6 7 7 6 7 7 6 7 7 7 8 8 8 8 9 10 12 14 16 17 19 19 18 18 18 18 20 20 19
10 9 8 6 5 5 4 3 3 2 2 3 4 5 5 5 4 3 2 1 1 0 1 2 2 3 4 4 4 4 5 5 6 7 7 7 8 8 9 9 9 9 9 9 9 9 9 9 9 9 9 10 11 12 13 15 16 18 19 20 22 23 21
12 11 10 8 7 6 6 5 5 4 2 2 2 3 4 4 4 5 4 4 3 3 2 2 1 1 1 2 3 3 3 4 5 5 6 6 7 8 8 9 9 9 10 10 11 11 11 11 11 11 11 12 11 11 11 12 12 14 15 17 19 21 22
13 12 12 11 9 8 8 7 7 7 6 5 4 3 2 2 3 4 5 5 5 5 5 5 4 4 3 3 3 3 3 3 3 3 4 5 5 6 6 7 8 8 8 9 9 10 11 11 11 12 12 13 13 13 13 13 14 14 14 16 16 17 20
14 13 13 13 12 11 11 10 9 9 9 9 8 7 6 5 4 4 5 6 6 6 7 6 6 6 6 5 5 5 5 5 5 4 4 4 4 5 5 5 6 7 7 7 8 8 8 9 9 9 10 11 11 11 12 12 13 14 15 16 15 15 19
16 15 14 14 13 13 13 13 12 12 12 12 12 10 10 10 8 7 7 7 7 8 8 8 8 8 7 7 7 7 7 7 7 7 7 6 7 7 7 7 7 7 7 8 8 8 8 8 9 9 9 9 10 10 11 11 12 12 14 15 14 16 20
18 17 16 16 15 14 15 15 15 15 15 15 15 13 13 13 12 11 11 10 9 9 9 9 9 9 8 8 7 7 8 8 8 9 9 9 10 10 10 10 10 10 10 10 10 10 10 10 10 11 11 11 11 12 12 12 12 12 13 15 15 16 18
20 20 19 19 17 16 16 17 17 18 18 18 18 17 15 15 15 14 14 13 12 11 11 10 10 10 10 9 8 8 8 9 9 9 9 10 11 11 12 12 12 12 13 13 13 12 12 12 13 13 13 14 14 14 15 15 15 14 15 16 16 16 18
23 23 22 21 21 19 19 18 18 18 19 19 20 20 19 18 17 16 16 16 15 14 12 11 11 11 11 10 9 8 8 9 10 10 10 10 10 12 13 13 13 13 14 14 15 15 15 14 15 15 16 16 17 17 18 18 18 18 17 18 18 18 18
26 26 26 25 24 23 22 22 20 20 20 20 20 21 21 21 20 19 18 17 17 17 15 13 12 12 13 12 10 10 11 11 12 13 13 13 12 12 13 14 15 15 15 16 16 17 18 17 17 18 18 18 19 20 20 21 21 21 20 20 21 20 20
30 28 28 28 27 26 26 26 23 22 22 22 22 22 22 23 22 20 18 18 19 18 17 16 15 15 16 15 13 13 13 14 14 15 15 16 15 14 14 15 15 16 16 16 17 18 19 19 20 20 21 21 22 22 22 23 24 24 24 23 23 23 23
32 28 28 29 29 29 28 27 26 25 25 24 24 24 24 25 24 21 20 20 20 19 18 18 18 18 18 18 16 15 15 15 16 17 17 17 18 17 17 17 18 17 17 17 17 18 19 20 21 21 22 23 24 25 25 25 25 26 26 26 25 26 26
35 30 29 30 30 31 30 29 27 26 26 27 27 27 28 27 27 26 25 23 22 21 21 21 21 21 20 21 20 18 18 18 18 19 20 20 20 21 21 21 21 21 21 20 20 20 20 20 21 22 23 24 26 27 27 28 28 29 29 28 28 28 28
34 32 31 31 32 33 32 32 28 25 26 28 29 30 32 31 30 30 29 27 26 24 24 24 23 23 23 22 22 21 21 20 20 21 22 22 23 24 24 25 25 25 25 25 25 24 23 23 22 23 23 24 25 26 27 28 29 30 31 31 31 31 30
29 30 32 33 32 31 30 31 30 28 28 29 30 32 34 34 33 33 31 30 30 29 27 26 25 24 23 23 23 22 22 21 21 22 22 23 24 25 26 28 28 28 29 28 29 29 28 27 26 26 26 26 27 27 27 27 28 29 30 32 33 33 33
25 26 28 28 27 27 27 27 29 29 27 27 28 30 32 34 36 37 35 34 35 32 29 29 28 27 25 25 24 23 22 21 22 23 23 24 26 27 29 30 31 31 32 31 31 32 32 31 30 30 30 30 30 30 30 30 30 30 30 31 32 33 34
24 25 26 27 27 28 29 30 31 30 28 27 28 30 32 34 36 38 37 36 36 34 32 32 32 31 30 28 26 26 26 25 25 26 27 27 28 29 31 33 34 34 35 34 33 34 34 34 33 33 33 33 34 34 34 34 33 33 34 34 34 34 34
24 25 25 26 27 28 29 31 32 31 30 30 30 32 33 35 37 37 36 34 35 37 37 34 34 36 34 29 27 29 30 30 30 30 31 31 31 32 33 34 36 37 37 37 36 36 36 35 35 35 35 35 36 37 37 37 37 36 37 38 38 37 37
27 27 26 26 27 29 31 33 34 33 32 31 31 32 33 36 38 38 36 34 36 40 40 37 36 37 33 28 29 32 32 32 33 33 34 34 35 36 36 37 38 39 40 40 39 38 38 37 36 35 35 36 37 38 38 39 39 39 39 40 41 41 41
31 31 30 29 30 30 32 33 34 34 34 33 33 33 33 36 38 39 38 37 37 39 37 34 32 32 29 29 30 31 32 33 34 35 36 37 38 38 39 40 41 41 41 41 41 40 40 39 38 37 36 37 38 39 39 40 40 40 41 42 43 43 43
31 32 31 31 31 31 31 31 31 32 33 34 34 34 35 35 36 38 39 38 39 39 35 30 29 28 29 30 30 30 33 35 35 36 38 40 41 41 41 41 40 39 39 39 40 40 40 40 40 40 40 41 41 40 40 40 40 40 41 42 43 43 43
30 30 30 30 31 30 30 29 30 30 30 32 33 34 35 33 34 37 39 40 42 41 35 31 30 29 29 30 30 31 34 36 36 37 40 43 43 43 41 39 38 37 37 38 39 39 40 40 41 42 43 44 45 44 42 41 42 42 41 41 42 42 42
29 29 28 28 29 29 29 29 29 29 29 30 32 33 33 32 32 34 36 40 42 39 34 33 33 32 32 32 32 33 36 37 37 39 41 42 42 41 39 37 35 35 37 38 39 39 39 39 40 42 44 46 47 46 45 44 43 43 43 43 43 43 43
28 28 28 28 28 28 28 29 29 29 29 30 31 31 31 29 30 32 35 38 38 35 33 35 35 34 34 34 35 36 37 37 37 38 38 37 38 39 38 36 34 35 38 40 41 41 40 39 41 43 45 46 47 47 46 45 45 45 44 44 44 45 45
28 28 28 28 28 28 29 29 29 28 29 29 30 31 29 28 30 34 35 35 34 33 34 35 35 35 36 35 36 36 36 36 36 36 35 35 36 38 38 37 37 38 40 41 42 42 41 41 42 44 45 46 46 47 47 47 47 46 46 47 47 47 47
29 30 29 30 30 30 30 30 30 30 30 30 31 31 32 32 34 36 35 33 33 34 34 35 35 35 36 36 36 36 36 36 36 36 36 36 37 38 39 40 41 42 42 42 42 41 42 42 43 44 45 47 48 49 49 48 48 49 49 49 49 49 48
29 30 31 31 32 33 33 33 33 33 33 33 33 34 35 36 36 36 35 34 34 34 34 34 34 34 35 35 35 35 35 35 36 37 36 36 38 39 40 42 44 44 43 42 41 41 42 43 44 46 47 48 49 49 49 49 49 49 49 49 49 49 49
29 29 30 32 33 34 35 36 36 36 37 35 35 36 37 36 36 36 36 35 35 34 33 33 33 33 34 33 33 33 34 35 36 36 37 37 38 40 42 44 45 45 44 43 44 44 44 45 46 46 46 47 48 48 48 48 48 49 49 49 49 49 48
32 32 32 33 34 35 36 37 38 38 38 36 35 37 37 37 36 36 35 35 34 33 32 32 33 32 32 32 32 33 34 35 36 37 37 38 38 40 42 43 44 45 45 46 46 46 46 46 46 46 45 46 47 47 48 49 49 49 49 49 49 49 49
37 36 35 35 36 37 38 39 39 38 37 37 36 37 36 36 36 35 34 34 32 31 31 32 32 31 31 31 32 34 35 36 37 37 37 37 38 40 40 42 43 45 45 46 46 46 46 46 46 46 46 46 47 48 49 50 51 51 51 51 51 51 51
40 39 39 39 39 39 40 41 40 38 38 38 38 37 36 36 36 35 33 33 32 31 30 30 29 29 30 31 33 34 35 35 35 35 35 36 37 39 40 41 42 43 43 43 44 44 45 46 47 47 48 49 50 50 51 52 52 53 53 52 52 52 52
42 41 41 41 41 42 42 42 41 39 39 39 37 37 36 35 34 33 33 32 31 29 28 27 28 30 31 32 32 31 30 30 31 31 33 35 36 37 38 38 39 39 40 42 43 45 46 47 48 49 50 52 53 53 54 54 54 54 54 54 54 53 52

ECMWFFLT1_700_spd_036.txt.gz
Wind_Speed
4 3 3 4 4 5 5 6 6 6 6 6 6 5 5 5 4 4 3 2 1 1 1 2 3 4 5 5 6 6 8 9 9 8 9 9 8 8 9 10 10 9 10 11 10 11 10 8 8 6 3 6 15 23 25 22 21 21 21 23 24 24 25
4 4 3 4 5 5 6 6 6 6 6 6 6 6 6 6 5 5 4 3 3 2 1 0 1 2 2 3 4 4 5 7 8 8 9 9 9 9 10 10 10 10 10 11 12 11 11 10 10 9 7 5 7 15 22 25 24 24 22 21 20 21 23
5 4 3 4 5 6 6 6 6 5 5 5 4 4 4 5 5 5 4 4 4 3 2 1 1 0 1 1 2 2 3 4 5 6 7 8 8 9 10 10 10 11 11 12 13 12 11 11 12 11 10 9 8 9 15 21 24 25 24 22 21 21 23
6 5 4 3 4 5 6 6 6 5 5 4 3 3 3 3 3 4 4 4 4 4 3 3 2 2 1 1 2 2 2 2 2 3 4 4 5 5 6 7 8 8 9 10 10 10 11 12 13 12 12 12 12 11 12 15 18 21 23 24 24 23 23
7 6 4 4 3 4 5 6 5 5 4 4 3 3 3 3 3 3 3 3 3 3 3 3 3 3 3 3 3 3 3 3 3 3 3 3 3 4 4 4 5 5 5 6 6 7 7 8 9 11 12 14 15 15 14 14 15 17 18 20 23 25 25
9 7 6 5 4 4 4 4 4 4 4 3 3 3 3 3 4 4 3 3 3 3 3 3 3 3 3 3 3 4 4 4 4 4 4 4 5 5 5 5 5 5 5 5 5 5 5 6 6 6 8 10 11 13 15 16 17 18 17 17 18 20 23
10 9 7 6 6 5 4 3 3 3 3 3 3 3 3 4 4 4 4 4 4 3 3 3 2 2 2 3 3 3 4 4 4 4 4 5 5 6 6 6 6 7 7 7 6 6 6 7 6 6 6 6 7 8 10 12 14 16 18 18 17 17 19
12 11 10 8 7 7 6 5 4 2 1 1 2 2 3 3 4 4 5 5 5 5 5 4 3 2 2 1 1 1 2 2 3 3 3 3 4 4 5 5 6 6 7 7 7 7 7 8 8 8 8 8 8 8 8 9 11 13 15 17 16 16 18
13 13 12 11 9 9 9 8 7 6 4 2 2 1 1 2 3 3 4 5 5 6 6 6 6 5 4 3 2 2 1 1 2 2 2 2 2 2 2 3 3 4 5 6 6 6 6 7 7 8 8 8 9 9 10 10 11 12 14 14 13 15 17
14 14 14 13 12 11 11 10 10 9 8 6 5 4 4 3 2 3 3 4 4 5 6 6 7 7 6 5 4 3 3 2 2 2 3 2 2 2 2 2 2 3 3 3 4 5 6 6 6 7 7 7 8 8 9 9 10 11 13 13 13 16 17
15 14 15 15 15 13 13 13 12 11 11 10 9 7 7 7 5 5 4 4 4 4 4 5 5 5 6 6 6 5 4 4 3 3 3 3 3 3 3 3 3 3 3 3 3 4 5 5 6 6 7 7 7 7 8 8 9 10 12 11 12 15 16
16 16 16 17 17 15 14 15 14 13 13 13 12 10 9 9 9 8 7 6 6 6 5 5 5 4 4 4 5 5 5 5 5 5 5 5 5 5 5 5 5 5 5 5 5 5 6 6 7 7 8 8 9 9 9 9 9 10 12 12 12 14 15
19 18 18 19 19 18 16 16 16 15 14 14 14 13 11 11 11 10 10 9 8 8 8 7 7 6 6 5 4 4 4 5 5 5 6 6 7 7 7 7 7 8 7 7 7 7 7 8 8 9 10 10 10 11 11 11 11 11 12 13 13 15 16
22 21 20 21 21 21 19 19 18 18 17 15 14 14 12 11 11 10 10 11 11 11 10 10 9 9 9 8 8 6 5 5 5 4 5 5 6 7 7 6 6 8 8 8 9 9 8 9 9 10 11 12 12 13 13 14 13 13 13 15 16 16 17
24 23 22 23 24 24 23 21 19 19 19 18 16 15 13 12 11 11 10 11 12 12 12 11 11 11 10 10 10 9 8 8 8 7 6 6 6 6 8 8 7 7 8 9 9 10 10 10 11 12 12 13 13 14 15 16 17 16 15 16 17 17 18
26 25 23 25 27 27 26 24 22 22 22 21 19 17 17 15 13 13 13 13 14 14 14 14 13 13 12 12 12 11 10 10 11 11 10 9 9 8 8 10 10 9 10 11 11 11 11 11 12 13 14 15 15 16 16 17 19 19 19 19 19 20 20
31 29 25 26 30 31 28 24 25 26 25 23 22 22 22 21 18 16 16 17 17 18 18 17 17 15 14 14 15 14 13 12 13 14 13 13 14 13 12 12 13 13 13 13 14 14 15 15 15 15 16 17 18 18 18 19 20 21 22 21 21 22 23
37 37 34 33 35 37 32 27 28 30 28 26 25 23 25 26 23 21 21 20 21 21 21 21 20 19 16 15 15 16 15 15 14 15 16 16 16 17 16 15 16 16 17 17 18 18 19 20 20 20 20 20 20 21 21 22 22 23 24 24 24 24 24
36 37 36 35 34 36 35 33 32 32 30 27 25 23 25 26 25 26 26 23 21 22 22 22 23 23 21 19 17 17 16 16 16 16 17 17 17 17 17 17 18 19 20 21 21 22 23 24 24 24 24 24 23 23 23 24 24 25 26 27 27 27 26
30 30 30 29 27 28 31 34 33 33 33 29 24 23 25 26 28 29 27 23 21 22 23 24 24 23 23 23 23 22 20 18 17 17 18 18 19 19 19 19 20 21 23 24 25 26 26 27 27 28 28 28 28 27 26 26 27 27 28 29 29 29 29
22 22 22 21 20 20 25 28 28 29 30 26 21 22 25 27 28 27 24 22 23 24 25 26 25 23 22 24 27 27 25 23 21 21 21 21 22 23 23 23 23 24 26 27 28 29 30 30 31 32 32 32 32 31 30 29 29 29 30 30 30 30 31
17 17 17 17 17 17 19 23 24 25 26 24 23 25 28 28 25 23 22 22 24 25 25 25 25 24 23 25 27 29 29 28 27 27 26 25 25 26 27 27 27 28 28 29 30 32 33 34 35 36 36 36 35 35 34 32 32 31 31 31 31 31 32
17 18 18 18 19 19 20 22 23 24 25 26 27 28 29 27 24 22 23 23 24 27 27 26 26 25 25 26 27 29 31 31 30 29 28 28 28 28 29 29 29 30 31 31 32 33 35 36 37 37 37 37 37 37 37 36 35 34 34 33 32 32 33
23 22 22 21 22 22 22 23 23 24 24 25 26 27 29 29 26 25 26 25 26 29 29 28 27 26 25 25 26 29 31 30 29 29 29 29 29 29 30 30 31 33 33 33 34 36 37 37 36 35 34 35 35 36 37 38 38 38 37 37 35 35 35
26 26 26 26 26 25 24 24 24 25 26 27 27 27 29 31 29 28 28 28 28 30 31 30 28 27 25 24 24 28 30 29 28 29 28 28 30 31 31 32 33 34 35 36 38 39 39 38 35 33 32 32 33 34 36 37 38 39 39 40 39 38 38
26 26 27 27 28 28 27 26 25 25 26 27 28 28 27 28 29 29 28 28 30 32 32 30 30 30 27 25 24 27 29 29 29 28 28 29 31 31 32 33 35 36 37 39 40 40 39 37 34 32 32 32 33 34 35 36 36 37 38 40 41 41 40
25 25 25 25 26 27 27 26 25 25 24 25 26 27 26 26 28 28 28 30 32 32 30 29 30 29 27 25 25 27 29 30 30 29 29 30 32 32 33 35 36 37 39 40 40 39 38 37 35 34 35 36 37 37 37 37 37 37 38 39 41 42 42
24 24 24 23 23 24 24 24 24 24 23 23 23 25 26 26 27 27 29 31 32 30 28 28 27 25 24 24 25 27 29 30 30 30 30 31 32 33 35 36 37 38 38 38 38 38 37 37 36 36 38 39 40 40 39 39 38 39 39 39 41 42 42
23 23 23 23 22 22 22 23 23 23 23 23 23 24 25 26 26 27 29 31 30 28 27 26 25 23 24 24 26 27 29 30 30 31 31 33 33 34 35 36 37 37 36 37 38 38 38 37 36 38 40 41 41 40 39 38 39 39 40 40 41 42 43
24 24 23 23 23 23 23 23 23 24 24 24 24 25 25 27 28 29 29 28 27 26 26 26 26 26 26 26 27 28 28 30 31 31 32 33 34 36 37 37 37 37 37 38 39 39 37 37 37 39 41 41 41 40 40 41 41 42 42 42 43 44 44
26 25 24 23 22 22 22 23 24 24 25 25 26 27 27 28 29 29 28 27 27 28 28 29 29 29 29 28 28 27 28 29 30 31 32 33 35 36 36 36 36 37 38 39 38 37 36 37 38 40 41 41 42 42 43 43 44 44 44 43 44 44 44
29 28 26 24 23 22 22 23 23 24 26 27 29 30 29 29 29 28 28 29 29 30 31 31 30 30 30 29 28 28 29 29 30 32 33 33 34 34 33 33 34 35 36 37 36 36 37 39 41 41 41 42 43 43 43 43 44 44 44 43 43 43 42
32 32 30 28 27 26 26 26 26 27 28 29 29 30 30 30 29 29 30 31 32 32 32 32 31 31 30 30 30 30 30 31 32 32 32 32 32 31 31 32 33 34 35 35 36 38 40 41 41 41 41 41 42 42 42 43 43 44 44 44 44 43 43
34 35 34 33 32 31 31 31 31 31 32 32 31 30 30 30 30 31 32 32 32 32 32 32 32 31 31 31 32 32 32 31 31 31 30 30 30 29 30 32 34 35 36 36 38 40 41 41 41 41 41 42 42 43 43 43 44 44 45 45 45 45 45
37 36 36 36 36 36 35 36 35 35 35 35 34 33 33 32 32 33 33 32 33 33 33 33 33 32 32 32 32 32 31 30 29 28 28 27 28 29 31 34 35 35 36 37 39 40 40 40 41 41 41 42 42 43 44 44 45 45 46 47 47 47 48
38 38 37 38 38 38 38 38 38 37 37 37 36 35 35 35 35 35 34 33 33 33 33 33 32 32 31 31 31 31 29 27 26 25 25 26 28 30 31 32 33 34 35 37 38 39 39 39 40 41 42 43 44 45 47 48 48 49 50 50 51 51 51
39 40 40 40 39 38 39 40 41 40 40 39 38 38 37 37 36 36 34 33 33 33 32 32 31 30 30 29 29 28 26 25 24 23 25 28 29 29 30 31 33 34 34 35 36 37 38 39 41 43 44 46 47 49 50 51 52 53 53 53 53 53 53

ECMWFFLT1_700_spd_039.txt.gz
Wind_Speed
7 5 4 4 5 5 5 4 3 3 3 3 3 3 3 2 1 1 2 3 3 2 2 0 2 3 5 6 7 8 9 9 9 8 9 8 8 8 9 11 12 13 14 14 14 14 14 13 13 11 9 8 9 14 21 23 20 18 19 22 23 23 23
6 4 4 4 5 6 6 6 5 4 4 3 2 2 2 2 1 1 1 2 2 3 2 2 1 0 2 3 4 6 6 7 7 7 8 9 9 9 9 10 11 12 13 14 13 12 13 13 13 12 11 10 9 10 16 21 23 21 19 19 20 21 22
6 3 3 3 4 5 6 6 6 5 5 5 4 3 2 2 1 1 1 0 1 1 1 1 1 1 1 0 1 2 2 3 4 5 6 7 8 7 7 9 10 10 11 12 12 11 12 13 13 12 12 12 11 10 11 15 20 22 21 19 19 20 19
6 3 2 3 4 5 6 7 7 6 6 6 6 5 5 4 4 3 2 2 1 1 1 0 0 1 1 0 0 0 0 0 1 2 2 3 3 3 4 5 6 7 8 9 10 11 12 13 14 13 14 13 12 10 8 9 12 16 18 19 19 20 20
6 3 2 2 3 4 6 7 7 6 6 7 7 7 7 7 7 6 6 5 4 3 2 1 1 0 0 0 0 0 0 0 0 1 1 1 1 1 1 2 3 3 4 4 5 6 7 9 10 12 13 13 13 13 11 9 9 11 13 15 16 17 19
7 4 2 2 3 4 5 5 6 6 6 7 8 8 9 9 9 9 9 8 7 6 5 4 3 2 1 1 1 1 1 1 1 2 2 2 2 2 2 2 2 3 2 1 2 2 3 4 5 6 7 9 11 13 13 13 13 14 13 13 14 15 16
8 5 3 2 2 2 3 3 4 5 5 7 8 9 10 10 11 11 11 10 9 9 7 6 5 4 3 2 2 2 1 1 1 1 2 2 2 2 2 2 3 3 3 2 2 3 3 3 4 4 4 4 6 7 9 11 13 15 15 16 18 18 17
10 7 5 3 3 3 2 2 2 2 3 4 5 7 8 9 10 10 10 11 10 10 9 8 7 5 4 3 2 2 2 2 1 1 0 0 0 0 1 1 1 2 2 2 2 3 4 4 5 5 4 5 5 5 6 8 9 10 11 15 17 18 18
10 10 8 5 5 4 4 4 2 1 1 1 2 3 5 5 6 7 8 8 9 9 9 9 9 8 7 5 4 3 2 2 2 3 2 2 2 2 1 1 1 0 0 0 0 1 1 2 2 3 3 4 4 5 6 8 9 9 9 11 13 14 15
11 11 10 8 7 6 5 5 5 5 3 3 2 2 1 2 2 3 3 4 5 6 7 7 8 8 8 8 7 5 4 3 3 3 2 2 2 2 2 2 1 1 1 1 1 0 0 1 1 1 1 1 2 3 4 6 7 8 9 10 11 12 12
12 13 12 11 10 9 8 7 7 7 6 5 4 4 4 3 2 1 1 0 1 2 3 4 4 5 6 6 6 6 5 5 4 4 3 3 2 2 1 1 1 1 1 1 1 1 1 1 2 2 2 2 2 2 3 4 6 7 7 8 9 10 11
14 14 15 13 11 11 10 9 9 9 9 7 6 6 6 6 6 5 4 4 3 3 2 2 2 2 2 3 3 3 3 4 4 4 4 4 3 3 2 2 1 1 1 1 1 1 2 2 2 3 3 4 4 4 4 5 6 7 8 8 10 11 12
16 16 17 16 14 13 12 11 11 11 10 10 8 7 7 7 8 8 7 7 6 5 5 5 4 4 4 3 2 2 1 1 1 2 2 2 3 3 3 3 3 4 3 4 3 3 3 3 4 4 4 5 5 6 7 7 8 9 10 10 11 12 13
19 18 18 19 17 16 14 14 14 13 13 12 11 9 7 7 7 8 8 8 8 7 6 6 7 6 6 6 6 5 4 4 3 3 2 1 0 1 2 2 3 3 3 4 4 5 5 5 5 6 6 7 7 7 8 9 9 10 12 13 13 14 15
22 20 18 18 18 18 17 16 15 15 16 15 14 12 10 8 7 8 9 9 9 8 7 7 7 7 8 8 9 8 8 8 7 6 5 4 3 3 2 1 1 2 3 3 4 5 5 6 7 7 8 9 10 10 11 11 11 11 12 14 15 16 17
24 22 19 18 17 16 17 18 18 17 18 19 18 16 15 14 13 13 14 14 13 11 9 8 8 7 8 8 10 10 10 10 10 9 7 7 6 6 6 6 5 5 6 6 6 6 7 8 9 10 11 12 13 14 14 15 15 15 14 15 16 17 18
21 19 18 19 19 17 18 21 23 25 24 24 23 22 21 20 19 19 19 19 16 13 13 13 12 11 10 10 9 10 10 10 11 11 11 10 10 9 10 11 10 9 8 9 9 9 9 10 11 13 14 15 16 16 17 18 19 20 19 19 19 19 20
18 15 15 18 21 22 22 24 29 31 29 26 25 25 25 25 24 23 21 20 17 16 16 17 18 16 14 12 11 11 12 11 11 11 11 11 12 12 11 12 13 12 11 12 12 13 13 14 15 16 17 18 19 19 20 21 22 23 24 24 23 23 23
16 16 17 19 22 25 26 27 29 29 27 25 25 26 26 27 26 24 22 20 17 17 17 19 19 16 15 15 16 15 14 13 12 12 11 11 12 12 12 12 13 14 15 16 17 18 19 19 19 20 21 21 22 23 23 24 25 26 27 27 27 26 26
11 12 14 17 19 21 23 24 24 24 22 22 22 23 23 25 26 25 23 21 19 18 17 18 16 14 15 18 19 18 17 16 15 14 14 14 14 14 15 15 16 17 18 19 20 21 22 23 23 23 24 25 26 26 27 27 27 27 28 29 29 29 29
8 9 11 12 14 16 17 18 17 17 16 16 17 19 19 19 21 22 23 22 20 18 17 16 15 15 16 18 19 20 20 19 18 17 17 18 19 19 19 19 19 20 21 22 23 24 24 25 25 25 27 28 29 30 30 30 29 28 28 28 29 30 31
8 9 9 9 10 11 12 13 13 13 13 13 15 17 17 17 17 19 20 20 18 17 17 17 17 18 18 17 18 20 22 23 23 23 22 22 22 22 21 20 21 23 24 24 25 26 27 27 27 28 28 30 31 31 32 31 30 30 29 29 29 29 30
11 11 11 11 12 12 13 13 13 14 14 15 17 18 19 19 18 18 18 18 18 17 18 19 18 18 20 20 20 22 23 24 26 27 27 26 25 24 23 21 23 25 26 26 26 27 28 28 29 30 30 31 32 32 31 30 29 30 30 31 30 31 31
16 16 16 16 16 17 17 17 17 17 17 17 17 19 20 20 20 20 19 20 20 20 20 20 19 20 21 22 23 23 24 25 27 28 30 29 28 27 25 24 25 27 28 28 28 28 29 29 30 32 32 33 32 31 29 29 28 28 29 31 31 32 33
18 19 19 20 20 20 20 21 22 22 21 21 21 21 22 22 22 23 23 24 24 23 22 20 20 21 23 24 25 25 24 26 28 29 31 31 30 28 27 26 27 28 30 31 31 30 30 30 31 33 34 33 31 29 28 29 29 29 30 31 32 32 32
19 19 20 20 20 21 22 22 22 23 24 24 25 25 26 26 24 23 24 25 26 25 22 20 20 22 23 24 25 24 25 26 28 29 31 32 31 29 28 28 29 30 32 33 33 32 32 32 33 34 34 32 31 29 29 30 31 32 33 33 34 33 32
19 19 19 19 19 19 20 21 21 22 22 22 23 23 25 26 25 23 22 24 25 24 22 20 20 21 21 23 24 24 25 26 27 28 29 30 30 30 31 30 31 33 34 34 34 33 33 34 35 35 35 34 32 31 31 31 32 33 34 35 35 35 33
18 18 18 18 18 18 18 19 20 20 21 21 21 21 22 23 24 24 23 22 22 21 20 20 20 19 20 21 22 22 23 24 26 27 28 29 30 32 32 32 32 34 34 34 34 34 34 35 36 37 36 35 34 33 33 33 33 35 36 37 37 37 36
18 18 18 18 18 18 18 18 19 19 20 20 20 20 21 22 22 23 23 21 21 20 20 19 19 19 19 19 20 21 22 24 26 27 29 30 31 32 33 33 35 36 35 35 35 35 35 36 37 37 36 36 35 34 33 33 35 37 38 38 39 40 40
20 20 20 19 19 19 19 19 19 19 20 20 21 21 21 21 22 22 22 22 21 21 20 20 20 20 20 20 21 22 24 25 27 28 29 30 31 32 33 35 36 37 37 36 36 35 35 35 36 36 36 35 34 32 32 33 35 37 38 39 40 40 41
21 21 21 21 21 21 21 21 21 21 21 21 22 21 19 19 20 21 21 21 22 21 21 21 22 22 22 23 23 24 25 26 27 27 29 30 32 34 35 35 35 35 36 35 35 35 34 33 34 34 34 33 32 31 33 35 37 38 39 39 39 39 39
23 24 23 23 22 22 22 23 24 24 25 24 24 22 20 19 19 20 20 21 21 22 22 22 23 24 24 25 25 25 26 26 27 27 29 31 33 34 34 34 34 34 35 35 34 33 32 32 33 33 32 32 32 33 35 37 38 39 38 38 39 39 39
26 27 27 26 25 25 25 25 26 27 28 28 28 26 24 23 22 23 23 23 23 22 22 23 24 24 25 25 26 26 26 27 28 28 29 31 33 33 34 34 34 34 35 34 32 30 30 31 32 32 32 33 35 37 38 39 39 39 39 39 40 40 41
29 30 30 30 29 28 28 28 28 29 30 31 30 30 29 28 28 27 27 27 26 25 25 25 25 25 25 26 26 26 27 27 28 29 29 31 32 33 34 35 35 34 32 29 28 29 30 31 31 33 35 37 38 38 39 39 39 40 40 41 41 42 42
31 31 31 31 31 32 32 31 30 31 31 31 31 31 31 31 31 30 30 30 29 29 28 27 27 26 26 26 26 27 27 27 28 28 29 29 30 32 33 33 33 30 27 26 28 30 31 32 34 36 37 38 38 38 39 39 39 39 40 41 42 43 44
31 32 33 34 35 35 34 33 32 32 32 32 32 31 31 31 31 31 31 32 32 32 31 29 28 28 27 27 27 27 27 27 27 27 27 27 27 28 28 28 27 25 25 27 29 31 33 35 36 36 36 36 37 37 38 38 39 41 42 43 45 46 47
33 34 35 36 37 37 36 35 33 32 33 34 34 33 32 31 32 32 32 33 33 33 32 30 29 29 28 28 27 27 26 26 26 25 25 24 24 23 22 22 23 24 26 29 31 33 35 35 35 34 35 35 36 37 38 40 41 43 45 46 48 49 50

ECMWFFLT1_700_spd_042.txt.gz
Wind_Speed
11 10 8 8 7 7 7 6 5 4 3 3 3 3 4 3 2 1 0 1 3 4 4 4 5 6 7 8 8 8 9 10 11 11 11 11 11 11 11 12 12 13 12 13 14 16 17 17 17 16 15 15 15 16 17 19 22 23 23 23 23 24 25
11 10 8 7 7 7 7 7 5 3 2 1 1 1 2 2 2 1 0 1 2 3 3 3 3 3 3 4 5 6 7 8 9 9 9 10 10 10 10 10 11 10 10 11 12 14 15 16 16 16 15 15 14 14 14 15 18 21 23 22 21 20 23
11 10 8 7 7 7 8 8 6 3 3 3 3 2 2 2 1 1 1 2 2 3 3 3 3 3 2 2 2 3 3 4 5 5 6 7 8 9 9 10 10 9 9 10 11 12 13 14 15 15 15 15 15 13 12 11 14 18 22 23 22 19 18
10 10 9 7 7 7 7 7 6 5 4 4 5 5 5 4 4 3 3 3 3 2 2 2 2 2 2 3 3 2 2 2 2 2 2 3 4 6 7 8 8 8 9 10 10 11 12 13 13 15 15 15 15 13 12 10 9 13 17 21 23 22 18
8 9 9 8 7 6 6 7 7 6 4 4 6 7 7 7 7 7 6 5 4 3 3 2 2 2 2 2 2 2 2 2 2 2 2 3 3 3 3 4 4 4 5 6 8 9 11 12 13 14 15 15 15 15 13 12 10 10 12 16 19 20 20
8 8 9 8 6 5 5 6 6 6 5 4 6 7 8 9 9 9 9 8 7 6 5 4 3 3 2 2 1 1 2 2 2 2 2 2 3 3 3 4 4 4 4 4 5 6 7 8 9 10 11 12 14 14 14 14 14 13 12 13 14 16 18
8 7 7 8 7 5 4 4 5 5 5 5 5 6 7 8 9 10 10 9 9 8 7 6 6 5 4 3 3 2 1 1 2 2 3 3 3 3 4 4 5 4 5 5 5 5 5 5 5 5 6 7 8 10 11 13 15 15 15 15 14 14 16
8 6 6 7 7 5 3 2 2 3 4 4 4 5 5 7 8 8 9 9 9 8 8 8 7 6 5 4 4 3 3 2 2 2 1 2 2 2 3 4 4 3 3 4 5 5 5 5 5 5 5 6 6 6 7 9 11 12 13 14 14 13 13
10 9 7 7 7 6 5 4 3 2 1 2 3 3 3 4 5 6 7 7 7 7 7 7 7 6 5 4 4 4 3 3 3 3 2 2 2 2 2 2 2 2 2 3 3 3 3 3 4 5 5 6 7 7 7 8 9 9 10 11 11 11 11
13 11 9 8 8 8 7 7 5 4 3 2 1 0 0 1 2 3 4 4 5 5 5 5 5 5 5 4 4 4 4 4 3 3 3 2 2 2 2 2 2 2 2 2 2 2 2 2 3 3 4 4 5 6 7 8 9 9 10 11 11 12 12
15 13 12 11 10 10 9 8 8 7 6 5 4 3 3 2 2 2 1 2 2 2 2 3 3 3 3 3 3 3 3 4 4 3 3 3 3 2 2 2 2 2 2 2 2 2 3 3 3 3 3 3 4 5 6 7 7 8 9 10 11 11 11
18 16 15 14 13 12 11 10 9 8 8 7 7 6 6 5 5 6 5 4 3 2 2 1 1 1 0 0 1 1 1 2 2 3 4 3 3 3 2 2 2 2 2 2 3 3 3 4 4 4 5 5 5 5 6 7 8 8 9 10 10 11 11
22 20 18 17 17 15 14 12 11 9 8 7 7 7 7 7 7 8 8 7 6 5 5 4 4 4 4 3 3 2 2 1 1 1 2 2 2 2 2 2 2 2 1 1 2 2 3 3 4 4 5 5 6 6 7 8 9 9 10 11 12 13 13
27 24 20 19 18 17 15 14 13 11 9 7 7 7 7 8 8 8 7 7 7 7 7 7 7 7 7 6 6 6 5 4 4 3 2 1 1 1 1 1 1 1 1 1 1 2 2 3 3 4 4 5 5 5 6 7 8 10 11 12 13 15 15
29 26 23 21 21 19 18 17 16 14 11 9 7 8 9 10 10 8 6 6 6 7 7 8 8 7 7 8 8 8 8 8 7 6 6 5 5 4 4 4 4 3 3 4 4 5 5 5 5 6 7 7 7 7 8 8 9 10 11 13 14 15 16
29 27 25 25 24 22 21 21 20 16 13 10 9 11 14 16 16 14 11 10 10 10 10 10 10 9 8 9 9 9 10 10 9 9 8 8 9 9 9 8 9 9 8 9 9 9 8 8 8 9 9 10 10 11 12 12 13 13 13 14 16 17 18
29 27 26 26 25 25 26 26 21 15 14 13 13 15 18 19 19 19 17 16 15 15 14 12 12 12 12 12 12 11 10 10 10 10 10 10 11 12 12 11 12 12 13 13 13 12 12 12 12 12 12 12 13 15 16 16 17 17 17 17 18 19 21
25 23 23 24 24 23 23 22 18 16 18 17 15 17 20 20 19 19 20 20 20 19 17 14 12 13 14 15 15 14 13 12 11 11 11 12 12 13 13 12 12 13 14 15 15 15 15 15 16 16 16 17 18 18 19 20 20 21 21 21 21 21 23
17 17 19 20 21 20 19 18 18 18 19 17 16 18 21 21 20 20 19 21 22 22 20 17 14 13 14 15 15 15 16 15 14 13 13 13 14 14 13 13 13 13 14 16 17 17 18 19 20 21 22 22 22 22 22 23 24 24 25 25 25 24 24
14 16 18 20 23 24 22 20 19 19 18 17 18 19 21 20 19 18 17 18 20 23 23 22 19 15 14 13 14 15 16 16 16 16 15 15 16 16 16 16 15 15 16 17 19 20 21 22 23 24 25 25 25 25 25 26 27 28 29 29 28 27 25
11 12 14 15 17 18 17 15 15 16 15 16 17 18 19 18 16 15 16 16 18 21 23 24 22 17 13 12 14 15 16 16 16 16 17 18 17 17 18 19 18 18 19 21 22 23 24 25 26 27 27 27 28 28 28 29 30 31 31 31 31 30 28
8 9 9 10 10 11 11 10 11 12 13 13 15 15 15 14 14 14 15 16 17 18 19 21 20 17 15 14 15 16 17 17 16 17 19 20 21 20 21 21 21 21 21 22 24 25 26 28 29 30 29 28 29 29 30 31 32 33 34 33 32 31 30
9 9 9 9 9 10 10 10 11 12 13 14 15 14 14 14 14 15 16 17 18 18 17 17 17 17 17 18 18 19 20 20 20 20 21 22 24 25 25 25 24 23 22 24 25 26 28 29 30 31 30 28 29 31 32 32 33 35 35 34 33 32 31
11 11 12 12 13 13 14 14 15 15 16 17 17 17 16 15 15 16 17 17 18 18 17 17 17 19 20 21 23 23 24 23 23 23 23 23 25 27 28 27 27 26 25 26 26 27 29 31 32 33 31 28 29 32 33 33 34 35 35 34 33 33 33
13 13 14 14 14 15 16 16 17 18 19 19 20 20 20 19 19 18 19 19 19 19 19 19 20 22 23 25 26 26 26 25 25 25 24 24 25 27 28 29 29 29 28 27 28 30 32 34 34 35 34 31 30 33 34 34 34 35 35 35 34 33 34
14 14 15 15 16 17 17 18 19 20 21 22 22 23 23 22 21 21 21 22 22 21 21 21 22 24 25 26 27 27 27 26 26 25 25 26 27 28 29 30 31 31 30 29 30 32 35 36 36 38 37 34 32 33 34 34 35 36 36 36 36 35 35
14 14 14 15 15 16 17 18 20 21 22 23 24 24 25 24 23 21 22 23 23 22 21 21 23 24 25 26 27 27 26 26 26 25 25 27 29 29 30 30 30 31 31 32 33 34 36 36 37 39 39 36 34 34 35 36 37 37 37 37 38 38 38
14 14 14 14 14 15 16 16 18 19 19 20 21 22 22 22 21 20 20 20 20 20 20 21 22 22 23 24 25 26 26 26 26 25 25 27 29 30 29 29 30 30 31 33 35 36 37 37 39 40 40 37 36 36 37 37 38 38 38 39 40 40 39
15 15 15 15 15 15 16 16 17 17 18 18 19 19 19 19 19 19 19 19 19 19 19 20 21 22 22 23 24 25 26 26 25 25 24 25 27 28 28 30 30 30 32 34 36 37 38 39 40 41 40 39 37 37 38 38 38 39 39 39 40 40 40
17 17 18 18 17 17 17 18 18 18 18 18 18 18 18 18 18 18 18 19 19 20 20 21 21 22 23 23 24 24 25 25 25 24 24 25 25 26 28 30 31 33 34 36 37 38 39 41 42 43 42 40 38 37 37 37 38 39 39 40 40 39 39
19 19 19 19 19 20 20 20 20 20 20 20 20 19 19 19 19 18 18 18 18 19 20 21 22 23 24 24 24 25 24 24 24 25 26 26 26 27 28 30 32 34 35 37 38 39 40 42 43 43 42 39 38 37 37 37 37 38 39 39 40 40 40
21 21 21 21 21 22 22 22 22 22 22 21 21 21 21 21 21 21 21 20 20 19 19 20 20 21 22 23 24 25 25 25 25 26 27 27 28 28 29 30 32 34 36 38 39 40 41 42 42 40 39 39 38 37 37 37 38 39 39 39 39 40 40
24 23 23 23 23 23 24 24 24 25 24 24 23 23 22 23 24 25 25 26 25 24 23 22 21 20 21 22 23 24 25 26 26 27 28 28 29 29 29 30 32 34 35 36 37 38 39 40 39 39 39 38 37 37 37 38 39 39 39 40 40 40 41
25 25 25 25 25 25 25 26 26 26 27 27 26 25 25 25 25 26 27 28 28 28 27 27 26 25 24 23 23 24 25 26 27 27 28 29 29 30 30 30 31 32 33 34 35 37 38 38 38 38 37 36 35 36 37 38 39 39 40 40 40 41 41
27 27 27 27 27 26 26 26 27 27 27 28 28 28 27 27 27 27 27 28 28 29 29 29 29 28 27 27 27 26 26 27 27 28 28 29 30 30 30 30 31 31 32 34 35 35 36 36 35 34 33 33 34 36 37 38 39 39 39 39 40 40 40
28 29 29 28 28 27 27 27 26 26 27 28 28 28 28 28 28 28 28 28 29 29 29 30 30 29 29 29 29 28 27 27 27 28 29 29 30 30 30 31 32 32 32 33 33 33 33 32 32 31 32 33 35 36 37 38 38 38 38 38 38 39 40
29 28 29 29 29 29 28 28 27 27 28 28 29 29 30 29 29 28 29 29 30 30 31 31 31 31 30 30 30 29 28 27 27 28 29 29 29 30 30 31 32 32 31 31 31 30 30 30 30 32 33 34 35 36 36 37 37 37 37 38 39 40 42

ECMWFFLT1_700_spd_045.txt.gz
Wind_Speed
9 10 10 10 10 10 9 8 7 7 6 6 5 5 6 5 4 3 2 2 3 4 4 5 5 6 7 7 7 8 8 9 11 12 13 13 13 13 13 12 12 12 12 13 13 14 15 16 17 17 16 15 14 15 15 17 18 20 20 21 21 20 21
7 8 9 10 10 10 9 8 7 6 5 4 3 3 4 4 4 3 2 1 1 1 1 2 2 3 5 5 6 6 6 7 8 9 10 10 11 11 10 11 10 11 11 12 12 13 14 15 16 16 16 16 16 16 17 17 17 18 18 17 18 20 20
6 7 8 8 9 9 9 8 7 6 5 3 2 2 2 3 3 4 4 4 3 3 2 2 1 1 2 3 3 4 4 5 6 6 7 8 9 9 9 10 10 10 10 10 11 12 13 15 15 15 16 17 17 17 17 17 17 16 16 15 16 18 19
4 5 6 6 7 8 8 8 7 6 5 3 2 1 0 1 2 3 4 5 5 5 5 4 3 2 1 1 2 2 3 3 4 4 6 6 7 8 9 10 10 9 9 10 10 11 12 14 15 15 16 17 17 18 18 17 18 17 16 16 15 15 16
2 3 3 4 5 7 7 7 7 6 5 4 3 2 1 1 1 2 2 3 4 5 5 5 5 5 4 4 3 3 2 2 2 3 3 4 5 6 7 7 8 8 8 9 9 11 11 13 14 14 15 16 17 18 18 18 18 17 17 16 15 13 12
3 2 2 2 4 6 6 6 6 5 4 4 3 3 3 3 2 2 2 2 2 2 2 3 4 5 5 6 5 5 5 4 4 3 3 3 4 4 5 5 5 5 6 6 7 8 10 11 12 13 15 16 17 18 18 18 18 17 17 16 15 13 12
6 4 4 4 4 4 6 6 5 5 4 4 3 4 4 4 4 4 4 4 3 3 2 1 1 2 3 4 5 5 6 6 5 4 4 4 4 5 5 5 5 5 5 5 5 6 7 8 9 10 11 12 13 14 15 16 16 16 16 16 15 14 13
9 7 7 6 5 4 5 6 5 5 4 3 3 4 4 4 5 5 5 5 5 4 3 3 2 2 1 2 2 3 3 3 4 3 3 3 4 5 5 5 5 5 5 6 6 6 6 7 7 8 8 9 9 9 9 10 11 11 12 12 12 12 12
12 11 10 8 7 6 7 6 5 5 5 3 3 3 4 4 5 5 5 5 4 4 4 4 4 3 3 2 1 1 1 1 1 1 2 2 2 2 3 3 3 3 4 4 5 5 5 6 6 7 8 9 8 8 8 8 9 9 9 10 9 10 10
15 14 13 11 9 8 8 8 6 5 5 4 4 3 3 4 4 4 4 4 4 4 4 4 4 4 4 4 3 2 1 1 1 0 0 1 1 1 1 1 1 1 1 2 2 2 3 3 4 5 6 7 7 7 8 8 9 9 9 10 10 10 11
17 16 15 13 11 10 10 9 7 6 6 5 5 4 3 3 3 3 3 3 4 4 5 4 4 3 3 4 3 3 2 2 2 2 2 2 1 1 1 1 1 1 1 1 2 2 2 2 3 3 4 5 5 6 6 6 7 8 9 9 10 10 11
19 19 18 16 14 12 11 10 9 8 8 6 6 6 5 4 4 4 4 4 4 4 5 5 5 5 4 4 4 3 3 2 2 2 3 3 3 2 2 2 2 3 3 3 3 3 3 3 4 4 4 5 5 6 6 6 7 8 9 10 10 10 11
21 21 21 19 16 14 13 12 12 11 10 9 8 7 6 5 5 6 6 6 7 7 6 6 7 7 7 7 6 6 5 4 3 2 2 2 2 2 2 2 2 3 3 3 4 4 4 4 4 5 5 6 6 7 7 8 8 9 10 11 12 12 13
23 25 23 21 19 18 16 16 16 15 14 13 11 10 9 8 6 6 6 7 8 8 8 7 7 8 9 9 10 9 8 7 6 4 3 3 3 2 2 3 3 3 3 3 3 4 4 4 5 5 5 6 6 7 7 8 9 9 10 12 13 14 14
27 27 25 24 23 23 20 19 19 19 17 16 15 13 13 12 10 9 8 8 8 6 7 7 7 8 9 10 11 11 11 10 9 8 7 6 6 5 5 5 5 5 5 5 6 6 7 7 8 7 7 7 7 8 8 9 10 11 12 13 14 15 16
28 27 27 27 27 25 22 21 22 22 21 21 19 18 17 16 14 12 10 10 10 9 9 9 9 9 11 11 12 12 12 11 11 11 11 11 10 9 9 9 9 9 8 8 9 10 11 11 12 11 11 11 10 11 11 11 12 13 14 15 16 18 19
29 28 29 30 29 27 25 25 26 26 25 24 23 21 20 18 15 14 13 11 11 12 13 14 12 11 12 14 14 15 14 13 13 13 13 13 13 13 13 13 13 13 13 13 13 13 13 14 14 14 14 14 14 15 15 15 15 16 16 17 18 20 21
28 28 29 31 31 30 29 30 30 26 23 23 25 24 22 19 17 17 16 14 13 13 15 16 17 15 14 15 15 16 16 16 16 15 14 14 14 14 14 14 15 16 16 16 16 16 16 16 17 17 17 18 19 19 20 20 20 21 21 21 22 23 24
26 28 29 30 31 31 31 31 29 24 20 18 20 22 22 21 20 20 19 17 16 16 16 17 19 19 17 16 16 17 18 18 18 18 17 17 16 16 15 15 15 16 17 18 18 18 19 19 20 20 21 22 23 23 23 24 25 25 26 26 26 26 27
24 27 29 30 31 32 30 29 26 22 20 17 17 19 20 20 20 21 21 21 21 19 17 17 19 21 20 19 19 19 18 19 19 19 19 20 20 19 18 17 17 17 18 19 20 21 21 22 23 24 25 26 26 26 26 27 29 29 30 30 30 30 30
23 24 25 27 29 29 28 25 24 23 21 19 19 20 20 20 20 20 21 21 20 19 16 15 17 20 21 22 23 22 21 21 20 20 20 20 21 22 22 21 20 19 19 20 22 23 24 25 26 27 29 29 29 29 28 29 30 32 32 32 32 33 33
22 20 19 21 24 25 24 22 21 22 20 18 18 19 19 20 20 18 18 18 18 16 14 13 14 16 18 21 25 27 27 24 22 22 21 20 21 22 23 23 22 22 22 22 23 25 26 28 29 30 31 32 32 32 31 30 30 32 33 33 34 35 36
15 14 14 16 16 16 16 14 14 15 14 14 15 16 16 17 16 15 15 15 15 13 13 14 14 16 18 20 22 26 27 25 23 22 22 22 22 22 23 24 24 25 25 26 26 27 28 29 30 31 32 33 34 34 33 31 31 32 35 36 37 38 38
12 12 13 12 12 13 13 12 12 13 13 14 15 15 15 15 14 14 14 14 14 14 15 15 17 19 20 20 20 23 25 25 25 25 24 24 24 24 25 25 26 27 28 28 29 30 31 31 31 32 34 35 36 37 36 34 33 35 37 39 40 41 40
14 15 15 15 15 16 16 16 16 16 17 17 17 17 17 17 17 17 17 17 18 18 18 18 20 22 22 21 21 24 25 25 26 26 26 26 26 27 27 28 28 29 29 30 31 32 32 32 32 34 36 37 38 39 39 37 36 36 38 40 41 41 41
19 19 19 19 20 19 19 19 19 19 19 19 19 19 19 19 20 20 20 21 22 21 21 22 23 25 26 25 25 26 27 27 26 27 28 28 28 29 30 30 30 31 31 32 33 34 34 33 34 35 36 36 37 39 39 38 37 37 38 39 40 40 41
21 21 21 21 21 22 22 22 22 21 21 21 21 21 21 21 22 22 22 23 23 24 24 25 26 28 28 29 29 29 30 30 29 30 30 31 31 33 33 33 32 33 33 34 35 36 36 34 32 31 32 34 38 40 40 39 39 38 38 39 39 40 40
21 21 22 21 22 22 22 22 23 23 22 22 22 21 21 21 22 22 23 23 24 24 25 26 27 28 29 30 30 31 31 31 31 31 31 32 32 33 34 34 33 34 34 35 36 37 37 36 33 31 32 36 40 42 42 41 40 39 39 40 40 40 40
20 20 20 20 21 21 22 22 22 22 22 22 22 22 22 22 22 22 23 23 23 23 24 25 26 26 27 29 30 31 31 31 31 31 31 32 32 32 32 32 33 33 34 35 36 36 37 37 36 35 37 40 42 42 41 40 40 40 40 40 40 41 41
21 21 20 21 21 21 22 22 22 21 21 21 21 22 22 23 23 23 23 24 24 23 23 24 25 25 26 27 29 30 30 30 30 30 30 30 30 30 30 30 30 31 31 32 33 34 35 36 37 37 38 40 40 40 40 40 41 41 41 41 41 42 42
24 24 24 24 24 24 24 23 22 21 21 21 22 22 23 24 24 24 24 24 25 25 24 24 25 25 26 27 28 29 30 30 29 29 28 28 28 28 28 28 29 29 30 31 32 33 34 35 37 37 38 39 40 41 41 42 42 43 43 42 43 43 43
26 28 28 28 28 27 26 25 24 23 23 22 23 23 24 25 25 25 26 26 26 27 27 26 26 26 26 26 27 27 28 28 28 28 28 28 28 28 28 29 30 30 31 32 33 34 35 36 36 37 38 40 41 41 42 43 44 44 44 43 43 43 43
29 31 32 31 30 29 28 27 26 25 24 23 24 24 25 25 25 26 26 26 27 28 29 29 29 29 28 28 28 27 27 27 27 27 27 27 28 28 29 30 31 32 32 33 34 34 35 36 37 38 39 40 40 41 42 43 44 44 44 43 43 43 43
31 32 33 32 31 30 29 28 27 26 26 26 26 26 26 26 27 27 28 28 28 28 29 30 30 31 32 32 32 32 30 29 28 28 27 27 28 28 29 30 31 32 33 33 34 35 35 36 37 38 39 40 41 41 42 42 42 42 42 42 43 42 42
31 33 33 33 31 30 29 28 28 28 28 28 28 28 28 28 28 29 30 30 30 30 30 29 30 31 32 33 34 34 34 33 32 32 31 30 30 30 31 31 31 32 33 33 34 35 35 36 37 38 39 40 40 40 40 40 40 40 41 41 41 40 39
31 32 33 33 31 31 30 30 30 30 30 30 29 29 29 29 29 30 31 31 31 31 31 31 31 31 31 32 32 33 34 34 34 35 34 33 33 33 33 33 33 33 33 34 34 35 36 37 38 38 39 39 38 38 38 38 38 38 38 38 38 38 38
30 30 30 30 30 30 30 31 31 31 30 30 30 30 30 30 30 31 31 31 32 32 32 32 32 32 32 32 32 32 32 33 34 34 35 35 35 35 35 34 34 34 34 34 35 36 37 37 37 37 37 36 36 35 35 35 35 36 36 36 37 37 38

ECMWFFLT1_700_spd_048.txt.gz
Wind_Speed
3 4 6 8 9 11 12 12 11 10 9 8 7 7 5 4 3 2 2 3 4 4 3 3 3 3 3 4 5 6 6 7 9 10 12 13 12 11 10 11 11 12 13 13 12 13 14 13 14 14 13 13 12 12 11 12 13 12 10 11 10 10 11
1 3 5 7 8 10 12 12 12 11 10 9 8 8 7 6 4 3 2 3 4 4 4 3 2 2 2 2 3 3 4 4 5 7 8 9 9 8 8 9 9 9 10 10 11 12 12 13 14 14 13 13 12 11 12 13 14 13 11 11 11 11 11
1 2 3 5 7 9 11 12 13 12 10 9 8 8 7 7 6 4 3 3 3 4 4 4 3 2 2 1 1 0 1 2 3 4 5 7 7 8 8 9 10 10 10 10 10 11 10 10 12 12 13 13 12 12 13 14 15 14 13 13 12 11 10
2 2 3 4 6 8 10 11 12 12 10 9 8 7 7 7 6 5 4 4 3 4 4 5 4 4 3 3 2 1 1 0 1 2 3 5 5 7 7 8 9 10 10 10 10 11 11 11 11 11 12 13 12 13 14 15 16 16 15 15 14 12 9
2 1 2 3 5 6 8 9 11 11 10 8 8 7 7 6 6 5 4 4 3 3 4 4 5 5 4 4 4 3 3 2 1 1 2 2 3 4 5 6 7 8 9 9 8 9 10 11 12 12 13 12 12 13 14 14 15 16 16 16 15 13 10
5 2 1 1 3 4 6 8 9 10 10 9 8 7 7 6 6 5 5 4 4 3 3 3 4 4 4 4 4 4 4 4 4 3 2 2 3 3 4 4 4 5 5 6 6 7 9 10 11 13 14 13 13 13 14 15 16 16 17 17 16 13 11
6 5 3 1 1 2 4 6 8 9 9 8 8 7 7 6 6 6 6 6 6 6 5 4 4 3 3 3 3 4 4 4 4 4 4 4 4 5 5 5 5 4 4 4 4 5 5 6 8 10 11 12 12 12 13 13 13 13 13 13 12 11 10
9 8 6 3 2 2 4 6 7 7 7 6 6 6 6 6 6 7 7 8 8 8 7 6 6 5 4 4 3 3 3 3 3 3 3 3 4 5 5 6 6 5 5 5 5 5 5 5 5 6 8 8 8 9 9 9 9 8 8 7 7 7 7
11 10 8 5 5 5 5 6 6 6 5 5 5 5 5 6 6 7 7 8 8 8 8 8 8 7 7 6 5 4 4 3 3 3 2 2 2 3 3 4 4 4 4 4 5 5 6 6 6 7 8 8 8 8 8 8 8 8 7 7 7 7 8
13 12 10 8 8 7 7 7 6 5 5 4 3 3 4 4 5 5 6 7 6 6 7 7 7 7 8 7 7 6 5 5 4 4 3 2 2 2 1 1 2 2 2 2 2 3 3 4 5 6 7 8 8 8 8 9 9 9 8 8 8 7 8
15 14 12 11 11 10 9 8 6 6 5 4 3 2 2 3 3 3 3 4 4 4 4 5 5 6 6 7 7 7 7 6 6 5 4 3 3 3 3 2 2 2 2 2 2 1 2 2 3 4 4 5 6 6 7 8 8 8 8 8 8 8 8
17 16 14 13 13 12 10 9 8 7 7 5 4 3 3 3 3 3 3 3 3 3 4 4 4 5 5 5 5 6 6 6 6 6 5 4 4 4 3 3 3 4 3 3 3 3 2 2 3 3 4 4 5 6 6 7 8 8 9 8 9 9 9
21 21 18 15 15 15 13 12 11 11 10 8 7 6 5 5 5 5 5 5 5 5 5 5 5 5 6 6 7 6 6 6 6 6 5 4 4 3 3 3 3 3 4 4 4 3 3 3 3 4 4 5 5 6 7 7 8 9 9 9 10 10 11
25 24 21 17 17 18 17 16 15 15 14 12 11 10 9 9 8 8 7 7 7 7 7 6 6 5 6 7 7 8 8 8 7 7 6 6 5 5 4 3 2 2 2 3 3 3 3 3 3 4 5 5 6 7 7 8 9 10 10 11 11 12 13
26 26 23 20 20 22 21 20 19 18 17 16 14 14 13 12 12 10 9 9 9 9 9 9 8 7 6 7 8 9 9 9 9 9 9 9 8 8 8 7 6 5 5 5 5 5 5 5 6 6 7 7 8 8 9 10 11 12 12 13 13 14 15
26 27 25 24 23 24 23 22 22 21 19 18 18 18 18 17 15 14 13 12 12 11 11 11 10 10 10 9 9 10 11 11 11 11 11 11 11 11 11 11 10 10 10 10 10 10 10 10 10 11 11 11 11 11 11 11 12 13 14 15 16 17 18
25 27 27 25 24 25 25 25 24 23 22 21 22 22 21 20 19 17 16 16 16 14 14 14 14 14 13 12 11 11 12 13 13 13 13 13 13 13 14 14 14 14 14 14 14 14 14 14 14 15 15 15 15 14 14 14 14 15 16 17 18 19 20
23 25 25 24 24 25 25 25 25 25 24 23 24 23 22 21 22 22 21 21 20 18 16 15 16 17 17 17 16 15 14 14 14 15 15 14 15 15 15 16 16 16 16 17 17 17 18 18 18 19 19 18 18 18 17 17 18 19 20 21 22 22 23
19 20 20 22 24 24 24 25 26 26 26 24 24 25 24 23 23 25 26 25 23 21 19 16 16 19 20 21 21 20 19 17 16 17 17 17 17 17 17 17 18 18 18 18 18 19 19 19 20 21 21 22 21 21 21 21 22 23 24 25 26 26 27
15 16 17 19 22 24 25 26 26 26 26 25 25 26 26 24 22 22 22 22 22 23 22 19 19 20 21 23 24 24 24 21 18 18 19 20 20 19 19 19 19 19 19 18 19 21 21 21 22 22 23 24 25 25 25 25 26 27 28 29 29 29 30
13 14 14 16 19 23 26 27 26 26 27 27 27 27 25 23 22 21 20 19 19 20 20 21 21 21 22 23 23 25 27 24 20 19 20 21 22 22 22 21 21 21 20 19 20 21 23 23 24 25 26 26 28 28 29 29 29 29 30 30 31 31 32
14 13 14 16 19 21 23 24 24 25 26 27 27 26 24 22 22 22 20 19 19 18 18 19 20 20 20 20 20 21 24 24 22 21 22 23 23 23 23 22 22 22 22 22 22 23 24 25 26 27 28 29 30 31 32 33 33 34 33 32 31 31 32
15 14 15 17 19 19 20 21 22 23 23 24 24 24 23 22 21 19 18 18 17 16 16 17 18 19 18 19 19 19 19 21 21 22 24 25 26 25 24 24 24 24 24 24 24 25 26 27 28 29 30 32 33 34 35 36 37 38 38 37 35 33 33
15 15 16 17 18 18 19 19 20 20 20 20 20 20 19 18 17 17 16 16 16 16 16 16 18 19 18 18 19 19 18 19 20 21 22 23 24 25 26 26 26 25 25 25 26 27 29 30 31 31 32 34 34 34 35 36 38 40 40 42 41 37 34
16 16 16 17 18 18 19 19 18 18 18 18 18 18 18 17 17 17 17 18 18 18 19 19 20 22 22 22 21 21 20 20 21 21 22 22 23 24 26 28 27 26 26 26 27 29 30 32 33 33 34 36 36 35 35 37 39 40 41 43 44 39 34
18 18 18 19 19 20 21 20 20 20 20 20 20 20 20 20 19 20 20 21 22 22 23 24 25 26 26 25 25 25 25 24 24 24 24 24 25 26 28 29 29 29 29 29 30 31 32 34 36 36 37 38 37 37 38 40 41 42 42 44 43 39 35
20 20 21 21 22 22 23 23 23 23 23 23 22 22 22 22 22 22 23 24 25 26 26 27 28 28 28 28 28 28 28 28 28 27 27 27 28 29 30 31 31 32 32 33 33 34 35 36 38 38 38 39 39 40 40 41 41 42 42 42 41 38 37
20 20 20 21 21 22 23 23 23 22 22 21 21 21 22 23 24 25 26 27 27 26 26 26 27 27 28 29 29 29 30 30 30 30 30 30 30 31 32 32 33 33 34 35 35 36 37 37 37 38 39 39 40 41 41 40 40 40 40 39 39 39 39
18 18 18 19 21 22 23 23 23 22 22 21 21 21 22 23 24 25 26 26 26 26 25 25 25 26 27 28 28 29 29 29 29 29 29 30 31 31 32 32 32 33 33 33 34 34 34 35 35 36 37 38 38 38 38 38 37 38 38 38 39 40 40
18 18 18 19 20 22 23 23 24 25 25 25 24 24 24 24 24 25 25 25 25 25 25 25 25 26 27 28 28 28 28 28 28 28 28 28 28 29 30 30 30 31 31 31 31 32 32 33 34 34 35 35 36 36 36 36 36 37 38 39 39 40 41
19 18 18 18 19 20 21 22 24 26 27 27 27 26 26 26 26 26 26 26 26 26 26 26 26 27 27 28 28 28 28 28 27 27 28 28 28 28 28 29 29 29 29 30 30 30 31 32 32 33 34 35 35 36 36 36 37 38 38 39 40 41 41
21 19 19 19 19 20 22 23 25 27 28 29 29 28 28 27 27 27 27 27 28 28 28 28 29 29 29 30 30 29 29 28 28 27 27 27 27 27 27 28 28 29 29 30 30 30 31 31 32 33 34 35 35 35 36 37 38 39 40 40 41 41 42
21 20 19 20 21 23 24 26 28 29 30 31 31 30 30 30 29 29 28 28 29 29 30 30 31 31 32 32 32 32 31 31 30 29 29 29 29 28 28 28 28 28 28 29 29 30 31 32 32 33 34 34 35 36 37 38 39 40 41 41 41 41 41
22 21 20 19 20 22 25 28 29 30 32 33 33 33 32 32 31 31 30 29 29 29 30 31 32 32 32 32 32 32 32 32 32 32 32 32 32 32 32 31 31 30 30 31 31 31 31 32 32 33 34 35 36 37 38 39 40 41 42 42 41 41 40
23 21 20 19 20 23 26 28 29 31 32 32 33 34 34 34 33 32 32 31 30 30 31 31 32 32 33 33 33 33 33 33 33 33 33 33 33 34 34 34 33 34 34 35 35 35 34 34 34 34 35 36 37 38 39 40 41 41 41 41 41 40 39
24 22 21 21 23 25 27 28 30 31 32 32 33 33 33 34 34 33 33 33 33 33 33 32 32 32 33 33 34 34 35 35 35 34 34 34 34 34 34 34 34 35 35 36 36 36 36 36 36 36 37 38 38 39 40 40 41 41 40 40 40 39 38
26 25 25 25 25 25 27 29 31 32 33 33 33 33 33 34 34 34 35 35 35 35 34 34 34 34 34 35 35 35 35 36 36 35 35 35 35 35 35 35 36 36 36 36 36 36 36 36 37 37 38 38 38 39 39 39 39 38 38 37 37 36 37